<?xml version="1.0" encoding="UTF-8" standalone="no" ?>
<gpx xmlns="http://www.topografix.com/GPX/1/1" xmlns:xsi="http://www.w3.org/2001/XMLSchema-instance" xsi:schemaLocation="http://www.topografix.com/GPX/1/1 http://www.topografix.com/GPX/1/1/gpx.xsd" version="1.1" creator="VisuGPX - https://www.visugpx.com">
  <metadata>
    <name>2026_EXTREME 2.0 Alpe Naccio 3-4K_V2</name>
  </metadata>
  <wpt lat="46.12032" lon="8.71127">
    <ele>215.4</ele>
    <name><![CDATA[]]></name>
  </wpt>
  <wpt lat="46.14418" lon="8.695">
    <ele>1399.5</ele>
    <name><![CDATA[Destination]]></name>
  </wpt>
  <trk>
    <name><![CDATA[Nouveau tour]]></name>
    <trkseg>
      <trkpt lat="46.12032" lon="8.71127">
        <ele>215.4</ele>
        <time>1970-01-01T01:00:00+01:00</time>
      </trkpt>
      <trkpt lat="46.12032" lon="8.71127">
        <ele>215.4</ele>
      </trkpt>
      <trkpt lat="46.12033" lon="8.71127">
        <ele>215.4</ele>
        <time>1970-01-01T01:00:00+01:00</time>
      </trkpt>
      <trkpt lat="46.12048" lon="8.71127">
        <ele>214.9</ele>
        <time>1970-01-01T01:00:00+01:00</time>
      </trkpt>
      <trkpt lat="46.12059" lon="8.71126">
        <ele>214.7</ele>
        <time>1970-01-01T01:00:00+01:00</time>
      </trkpt>
      <trkpt lat="46.12066" lon="8.71128">
        <ele>214.5</ele>
        <time>1970-01-01T01:00:00+01:00</time>
      </trkpt>
      <trkpt lat="46.12075" lon="8.71131">
        <ele>214.3</ele>
        <time>1970-01-01T01:00:00+01:00</time>
      </trkpt>
      <trkpt lat="46.12083" lon="8.71136">
        <ele>214.2</ele>
        <time>1970-01-01T01:00:00+01:00</time>
      </trkpt>
      <trkpt lat="46.12089" lon="8.71141">
        <ele>214</ele>
        <time>1970-01-01T01:00:00+01:00</time>
      </trkpt>
      <trkpt lat="46.12093" lon="8.71144">
        <ele>214</ele>
        <time>1970-01-01T01:00:00+01:00</time>
      </trkpt>
      <trkpt lat="46.12095" lon="8.71146">
        <ele>213.9</ele>
        <time>1970-01-01T01:00:00+01:00</time>
      </trkpt>
      <trkpt lat="46.12101" lon="8.71152">
        <ele>213.7</ele>
        <time>1970-01-01T01:00:00+01:00</time>
      </trkpt>
      <trkpt lat="46.12111" lon="8.71162">
        <ele>213.3</ele>
        <time>1970-01-01T01:00:00+01:00</time>
      </trkpt>
      <trkpt lat="46.12134" lon="8.71184">
        <ele>212.5</ele>
        <time>1970-01-01T01:00:00+01:00</time>
      </trkpt>
      <trkpt lat="46.12152" lon="8.71202">
        <ele>211.9</ele>
        <time>1970-01-01T01:00:00+01:00</time>
      </trkpt>
      <trkpt lat="46.12162" lon="8.71211">
        <ele>211.5</ele>
        <time>1970-01-01T01:00:00+01:00</time>
      </trkpt>
      <trkpt lat="46.12168" lon="8.71217">
        <ele>211.3</ele>
        <time>1970-01-01T01:00:00+01:00</time>
      </trkpt>
      <trkpt lat="46.12178" lon="8.71227">
        <ele>211</ele>
        <time>1970-01-01T01:00:00+01:00</time>
      </trkpt>
      <trkpt lat="46.12191" lon="8.71235">
        <ele>210.6</ele>
        <time>1970-01-01T01:00:00+01:00</time>
      </trkpt>
      <trkpt lat="46.12197" lon="8.71238">
        <ele>210.3</ele>
        <time>1970-01-01T01:00:00+01:00</time>
      </trkpt>
      <trkpt lat="46.12197" lon="8.71238">
        <ele>210.3</ele>
      </trkpt>
      <trkpt lat="46.12207" lon="8.71243">
        <ele>210</ele>
        <time>1970-01-01T01:00:00+01:00</time>
      </trkpt>
      <trkpt lat="46.1221" lon="8.71234">
        <ele>210.4</ele>
        <time>1970-01-01T01:00:00+01:00</time>
      </trkpt>
      <trkpt lat="46.12206" lon="8.71234">
        <ele>211.7</ele>
        <time>1970-01-01T01:00:00+01:00</time>
      </trkpt>
      <trkpt lat="46.12203" lon="8.71232">
        <ele>213.5</ele>
        <time>1970-01-01T01:00:00+01:00</time>
      </trkpt>
      <trkpt lat="46.12202" lon="8.71232">
        <ele>213.5</ele>
        <time>1970-01-01T01:00:00+01:00</time>
      </trkpt>
      <trkpt lat="46.12202" lon="8.7123">
        <ele>213.5</ele>
        <time>1970-01-01T01:00:00+01:00</time>
      </trkpt>
      <trkpt lat="46.12205" lon="8.7123">
        <ele>214</ele>
        <time>1970-01-01T01:00:00+01:00</time>
      </trkpt>
      <trkpt lat="46.12226" lon="8.71234">
        <ele>214.9</ele>
        <time>1970-01-01T01:00:00+01:00</time>
      </trkpt>
      <trkpt lat="46.1224" lon="8.71237">
        <ele>215.9</ele>
        <time>1970-01-01T01:00:00+01:00</time>
      </trkpt>
      <trkpt lat="46.12241" lon="8.71238">
        <ele>216</ele>
        <time>1970-01-01T01:00:00+01:00</time>
      </trkpt>
      <trkpt lat="46.12247" lon="8.71239">
        <ele>218.4</ele>
        <time>1970-01-01T01:00:00+01:00</time>
      </trkpt>
      <trkpt lat="46.12254" lon="8.71244">
        <ele>220.7</ele>
        <time>1970-01-01T01:00:00+01:00</time>
      </trkpt>
      <trkpt lat="46.12258" lon="8.71246">
        <ele>222.3</ele>
        <time>1970-01-01T01:00:00+01:00</time>
      </trkpt>
      <trkpt lat="46.12263" lon="8.71251">
        <ele>223.8</ele>
        <time>1970-01-01T01:00:00+01:00</time>
      </trkpt>
      <trkpt lat="46.12267" lon="8.71253">
        <ele>224.6</ele>
        <time>1970-01-01T01:00:00+01:00</time>
      </trkpt>
      <trkpt lat="46.1227" lon="8.71255">
        <ele>225.8</ele>
        <time>1970-01-01T01:00:00+01:00</time>
      </trkpt>
      <trkpt lat="46.12271" lon="8.71253">
        <ele>225.6</ele>
        <time>1970-01-01T01:00:00+01:00</time>
      </trkpt>
      <trkpt lat="46.12278" lon="8.71242">
        <ele>228.8</ele>
        <time>1970-01-01T01:00:00+01:00</time>
      </trkpt>
      <trkpt lat="46.12281" lon="8.71247">
        <ele>229.7</ele>
        <time>1970-01-01T01:00:00+01:00</time>
      </trkpt>
      <trkpt lat="46.12287" lon="8.71254">
        <ele>230.1</ele>
        <time>1970-01-01T01:00:00+01:00</time>
      </trkpt>
      <trkpt lat="46.12289" lon="8.71255">
        <ele>230.1</ele>
        <time>1970-01-01T01:00:00+01:00</time>
      </trkpt>
      <trkpt lat="46.12294" lon="8.71256">
        <ele>230.6</ele>
        <time>1970-01-01T01:00:00+01:00</time>
      </trkpt>
      <trkpt lat="46.12296" lon="8.71255">
        <ele>231</ele>
        <time>1970-01-01T01:00:00+01:00</time>
      </trkpt>
      <trkpt lat="46.12307" lon="8.71249">
        <ele>232.4</ele>
        <time>1970-01-01T01:00:00+01:00</time>
      </trkpt>
      <trkpt lat="46.12311" lon="8.71243">
        <ele>234.1</ele>
        <time>1970-01-01T01:00:00+01:00</time>
      </trkpt>
      <trkpt lat="46.12312" lon="8.71241">
        <ele>234.1</ele>
        <time>1970-01-01T01:00:00+01:00</time>
      </trkpt>
      <trkpt lat="46.12315" lon="8.71231">
        <ele>238.2</ele>
        <time>1970-01-01T01:00:00+01:00</time>
      </trkpt>
      <trkpt lat="46.12321" lon="8.71234">
        <ele>238.6</ele>
        <time>1970-01-01T01:00:00+01:00</time>
      </trkpt>
      <trkpt lat="46.12324" lon="8.71238">
        <ele>238.6</ele>
        <time>1970-01-01T01:00:00+01:00</time>
      </trkpt>
      <trkpt lat="46.1234" lon="8.71255">
        <ele>239.1</ele>
        <time>1970-01-01T01:00:00+01:00</time>
      </trkpt>
      <trkpt lat="46.12347" lon="8.71251">
        <ele>240</ele>
        <time>1970-01-01T01:00:00+01:00</time>
      </trkpt>
      <trkpt lat="46.12358" lon="8.71246">
        <ele>242.3</ele>
        <time>1970-01-01T01:00:00+01:00</time>
      </trkpt>
      <trkpt lat="46.12358" lon="8.71246">
        <ele>242.3</ele>
      </trkpt>
      <trkpt lat="46.1236" lon="8.71245">
        <ele>242.7</ele>
        <time>1970-01-01T01:00:00+01:00</time>
      </trkpt>
      <trkpt lat="46.12369" lon="8.71241">
        <ele>244.5</ele>
        <time>1970-01-01T01:00:00+01:00</time>
      </trkpt>
      <trkpt lat="46.12379" lon="8.71234">
        <ele>246.8</ele>
        <time>1970-01-01T01:00:00+01:00</time>
      </trkpt>
      <trkpt lat="46.12385" lon="8.71232">
        <ele>247.5</ele>
        <time>1970-01-01T01:00:00+01:00</time>
      </trkpt>
      <trkpt lat="46.12386" lon="8.71232">
        <ele>247.5</ele>
        <time>1970-01-01T01:00:00+01:00</time>
      </trkpt>
      <trkpt lat="46.12391" lon="8.71231">
        <ele>249.5</ele>
        <time>1970-01-01T01:00:00+01:00</time>
      </trkpt>
      <trkpt lat="46.12399" lon="8.71232">
        <ele>250.1</ele>
        <time>1970-01-01T01:00:00+01:00</time>
      </trkpt>
      <trkpt lat="46.12406" lon="8.71233">
        <ele>251.3</ele>
        <time>1970-01-01T01:00:00+01:00</time>
      </trkpt>
      <trkpt lat="46.12409" lon="8.71234">
        <ele>251.7</ele>
        <time>1970-01-01T01:00:00+01:00</time>
      </trkpt>
      <trkpt lat="46.12412" lon="8.71235">
        <ele>252</ele>
        <time>1970-01-01T01:00:00+01:00</time>
      </trkpt>
      <trkpt lat="46.12417" lon="8.71238">
        <ele>252.9</ele>
        <time>1970-01-01T01:00:00+01:00</time>
      </trkpt>
      <trkpt lat="46.1242" lon="8.7124">
        <ele>253.4</ele>
        <time>1970-01-01T01:00:00+01:00</time>
      </trkpt>
      <trkpt lat="46.12425" lon="8.71241">
        <ele>254.3</ele>
        <time>1970-01-01T01:00:00+01:00</time>
      </trkpt>
      <trkpt lat="46.12429" lon="8.71241">
        <ele>254.8</ele>
        <time>1970-01-01T01:00:00+01:00</time>
      </trkpt>
      <trkpt lat="46.12431" lon="8.71241">
        <ele>255.2</ele>
        <time>1970-01-01T01:00:00+01:00</time>
      </trkpt>
      <trkpt lat="46.12434" lon="8.7124">
        <ele>255.2</ele>
        <time>1970-01-01T01:00:00+01:00</time>
      </trkpt>
      <trkpt lat="46.12438" lon="8.71238">
        <ele>256.4</ele>
        <time>1970-01-01T01:00:00+01:00</time>
      </trkpt>
      <trkpt lat="46.12449" lon="8.71229">
        <ele>259.2</ele>
        <time>1970-01-01T01:00:00+01:00</time>
      </trkpt>
      <trkpt lat="46.12455" lon="8.71225">
        <ele>260.3</ele>
        <time>1970-01-01T01:00:00+01:00</time>
      </trkpt>
      <trkpt lat="46.12459" lon="8.71224">
        <ele>262</ele>
        <time>1970-01-01T01:00:00+01:00</time>
      </trkpt>
      <trkpt lat="46.1246" lon="8.71223">
        <ele>262.4</ele>
        <time>1970-01-01T01:00:00+01:00</time>
      </trkpt>
      <trkpt lat="46.12462" lon="8.71223">
        <ele>262.4</ele>
        <time>1970-01-01T01:00:00+01:00</time>
      </trkpt>
      <trkpt lat="46.12467" lon="8.71222">
        <ele>265</ele>
        <time>1970-01-01T01:00:00+01:00</time>
      </trkpt>
      <trkpt lat="46.12477" lon="8.71214">
        <ele>269.7</ele>
        <time>1970-01-01T01:00:00+01:00</time>
      </trkpt>
      <trkpt lat="46.12478" lon="8.71213">
        <ele>269.7</ele>
        <time>1970-01-01T01:00:00+01:00</time>
      </trkpt>
      <trkpt lat="46.12477" lon="8.71209">
        <ele>271.8</ele>
        <time>1970-01-01T01:00:00+01:00</time>
      </trkpt>
      <trkpt lat="46.12476" lon="8.71207">
        <ele>271.8</ele>
        <time>1970-01-01T01:00:00+01:00</time>
      </trkpt>
      <trkpt lat="46.12475" lon="8.71204">
        <ele>273.6</ele>
        <time>1970-01-01T01:00:00+01:00</time>
      </trkpt>
      <trkpt lat="46.12475" lon="8.71203">
        <ele>273.6</ele>
        <time>1970-01-01T01:00:00+01:00</time>
      </trkpt>
      <trkpt lat="46.12473" lon="8.712">
        <ele>275.2</ele>
        <time>1970-01-01T01:00:00+01:00</time>
      </trkpt>
      <trkpt lat="46.12473" lon="8.71199">
        <ele>275.2</ele>
        <time>1970-01-01T01:00:00+01:00</time>
      </trkpt>
      <trkpt lat="46.12474" lon="8.71195">
        <ele>275.4</ele>
        <time>1970-01-01T01:00:00+01:00</time>
      </trkpt>
      <trkpt lat="46.12472" lon="8.71193">
        <ele>275.6</ele>
        <time>1970-01-01T01:00:00+01:00</time>
      </trkpt>
      <trkpt lat="46.12468" lon="8.71188">
        <ele>276.2</ele>
        <time>1970-01-01T01:00:00+01:00</time>
      </trkpt>
      <trkpt lat="46.12463" lon="8.71185">
        <ele>276.4</ele>
        <time>1970-01-01T01:00:00+01:00</time>
      </trkpt>
      <trkpt lat="46.12464" lon="8.71183">
        <ele>276.4</ele>
        <time>1970-01-01T01:00:00+01:00</time>
      </trkpt>
      <trkpt lat="46.12465" lon="8.71182">
        <ele>276.5</ele>
        <time>1970-01-01T01:00:00+01:00</time>
      </trkpt>
      <trkpt lat="46.12468" lon="8.71182">
        <ele>276.6</ele>
        <time>1970-01-01T01:00:00+01:00</time>
      </trkpt>
      <trkpt lat="46.1248" lon="8.71186">
        <ele>277.8</ele>
        <time>1970-01-01T01:00:00+01:00</time>
      </trkpt>
      <trkpt lat="46.12491" lon="8.71189">
        <ele>278.9</ele>
        <time>1970-01-01T01:00:00+01:00</time>
      </trkpt>
      <trkpt lat="46.12493" lon="8.7119">
        <ele>279</ele>
        <time>1970-01-01T01:00:00+01:00</time>
      </trkpt>
      <trkpt lat="46.12494" lon="8.71191">
        <ele>279.1</ele>
        <time>1970-01-01T01:00:00+01:00</time>
      </trkpt>
      <trkpt lat="46.12496" lon="8.71194">
        <ele>279.3</ele>
        <time>1970-01-01T01:00:00+01:00</time>
      </trkpt>
      <trkpt lat="46.12496" lon="8.712">
        <ele>279.5</ele>
        <time>1970-01-01T01:00:00+01:00</time>
      </trkpt>
      <trkpt lat="46.12497" lon="8.71216">
        <ele>280.5</ele>
        <time>1970-01-01T01:00:00+01:00</time>
      </trkpt>
      <trkpt lat="46.12499" lon="8.71216">
        <ele>280.5</ele>
        <time>1970-01-01T01:00:00+01:00</time>
      </trkpt>
      <trkpt lat="46.12502" lon="8.71216">
        <ele>281.8</ele>
        <time>1970-01-01T01:00:00+01:00</time>
      </trkpt>
      <trkpt lat="46.12504" lon="8.71222">
        <ele>283.4</ele>
        <time>1970-01-01T01:00:00+01:00</time>
      </trkpt>
      <trkpt lat="46.12506" lon="8.71225">
        <ele>283.5</ele>
        <time>1970-01-01T01:00:00+01:00</time>
      </trkpt>
      <trkpt lat="46.12511" lon="8.71234">
        <ele>284.1</ele>
        <time>1970-01-01T01:00:00+01:00</time>
      </trkpt>
      <trkpt lat="46.12514" lon="8.71242">
        <ele>285</ele>
        <time>1970-01-01T01:00:00+01:00</time>
      </trkpt>
      <trkpt lat="46.12518" lon="8.71251">
        <ele>285.3</ele>
        <time>1970-01-01T01:00:00+01:00</time>
      </trkpt>
      <trkpt lat="46.12521" lon="8.71265">
        <ele>284.7</ele>
        <time>1970-01-01T01:00:00+01:00</time>
      </trkpt>
      <trkpt lat="46.12527" lon="8.71277">
        <ele>285.8</ele>
        <time>1970-01-01T01:00:00+01:00</time>
      </trkpt>
      <trkpt lat="46.1253" lon="8.71285">
        <ele>286.9</ele>
        <time>1970-01-01T01:00:00+01:00</time>
      </trkpt>
      <trkpt lat="46.12542" lon="8.71322">
        <ele>286.5</ele>
        <time>1970-01-01T01:00:00+01:00</time>
      </trkpt>
      <trkpt lat="46.12546" lon="8.71332">
        <ele>286.2</ele>
        <time>1970-01-01T01:00:00+01:00</time>
      </trkpt>
      <trkpt lat="46.1255" lon="8.71325">
        <ele>291</ele>
        <time>1970-01-01T01:00:00+01:00</time>
      </trkpt>
      <trkpt lat="46.12553" lon="8.71322">
        <ele>293.1</ele>
        <time>1970-01-01T01:00:00+01:00</time>
      </trkpt>
      <trkpt lat="46.12562" lon="8.71309">
        <ele>300.3</ele>
        <time>1970-01-01T01:00:00+01:00</time>
      </trkpt>
      <trkpt lat="46.12571" lon="8.71295">
        <ele>307.3</ele>
        <time>1970-01-01T01:00:00+01:00</time>
      </trkpt>
      <trkpt lat="46.12575" lon="8.71294">
        <ele>309.2</ele>
        <time>1970-01-01T01:00:00+01:00</time>
      </trkpt>
      <trkpt lat="46.12577" lon="8.71292">
        <ele>309.9</ele>
        <time>1970-01-01T01:00:00+01:00</time>
      </trkpt>
      <trkpt lat="46.12578" lon="8.71288">
        <ele>310.7</ele>
        <time>1970-01-01T01:00:00+01:00</time>
      </trkpt>
      <trkpt lat="46.12581" lon="8.71283">
        <ele>312</ele>
        <time>1970-01-01T01:00:00+01:00</time>
      </trkpt>
      <trkpt lat="46.12582" lon="8.71263">
        <ele>317</ele>
        <time>1970-01-01T01:00:00+01:00</time>
      </trkpt>
      <trkpt lat="46.1258" lon="8.71259">
        <ele>318.7</ele>
        <time>1970-01-01T01:00:00+01:00</time>
      </trkpt>
      <trkpt lat="46.1258" lon="8.71255">
        <ele>319.5</ele>
        <time>1970-01-01T01:00:00+01:00</time>
      </trkpt>
      <trkpt lat="46.1258" lon="8.71238">
        <ele>325.4</ele>
        <time>1970-01-01T01:00:00+01:00</time>
      </trkpt>
      <trkpt lat="46.12578" lon="8.71216">
        <ele>329.3</ele>
        <time>1970-01-01T01:00:00+01:00</time>
      </trkpt>
      <trkpt lat="46.1258" lon="8.71208">
        <ele>330.7</ele>
        <time>1970-01-01T01:00:00+01:00</time>
      </trkpt>
      <trkpt lat="46.12584" lon="8.71197">
        <ele>333.9</ele>
        <time>1970-01-01T01:00:00+01:00</time>
      </trkpt>
      <trkpt lat="46.12588" lon="8.71189">
        <ele>335.5</ele>
        <time>1970-01-01T01:00:00+01:00</time>
      </trkpt>
      <trkpt lat="46.12596" lon="8.71174">
        <ele>340.2</ele>
        <time>1970-01-01T01:00:00+01:00</time>
      </trkpt>
      <trkpt lat="46.12597" lon="8.71169">
        <ele>342.5</ele>
        <time>1970-01-01T01:00:00+01:00</time>
      </trkpt>
      <trkpt lat="46.12598" lon="8.71167">
        <ele>342.5</ele>
        <time>1970-01-01T01:00:00+01:00</time>
      </trkpt>
      <trkpt lat="46.12603" lon="8.71168">
        <ele>343.6</ele>
        <time>1970-01-01T01:00:00+01:00</time>
      </trkpt>
      <trkpt lat="46.12604" lon="8.71167">
        <ele>343.6</ele>
        <time>1970-01-01T01:00:00+01:00</time>
      </trkpt>
      <trkpt lat="46.12609" lon="8.71163">
        <ele>344.3</ele>
        <time>1970-01-01T01:00:00+01:00</time>
      </trkpt>
      <trkpt lat="46.12612" lon="8.71157">
        <ele>346</ele>
        <time>1970-01-01T01:00:00+01:00</time>
      </trkpt>
      <trkpt lat="46.12614" lon="8.7115">
        <ele>346.9</ele>
        <time>1970-01-01T01:00:00+01:00</time>
      </trkpt>
      <trkpt lat="46.12615" lon="8.71137">
        <ele>350.2</ele>
        <time>1970-01-01T01:00:00+01:00</time>
      </trkpt>
      <trkpt lat="46.12615" lon="8.71135">
        <ele>350.2</ele>
        <time>1970-01-01T01:00:00+01:00</time>
      </trkpt>
      <trkpt lat="46.12621" lon="8.71124">
        <ele>351.4</ele>
        <time>1970-01-01T01:00:00+01:00</time>
      </trkpt>
      <trkpt lat="46.12626" lon="8.71114">
        <ele>352.4</ele>
        <time>1970-01-01T01:00:00+01:00</time>
      </trkpt>
      <trkpt lat="46.12626" lon="8.71114">
        <ele>352.4</ele>
      </trkpt>
      <trkpt lat="46.12634" lon="8.71097">
        <ele>354.3</ele>
        <time>1970-01-01T01:00:00+01:00</time>
      </trkpt>
      <trkpt lat="46.1264" lon="8.71078">
        <ele>357.3</ele>
        <time>1970-01-01T01:00:00+01:00</time>
      </trkpt>
      <trkpt lat="46.12641" lon="8.71073">
        <ele>358.8</ele>
        <time>1970-01-01T01:00:00+01:00</time>
      </trkpt>
      <trkpt lat="46.12636" lon="8.71068">
        <ele>360.6</ele>
        <time>1970-01-01T01:00:00+01:00</time>
      </trkpt>
      <trkpt lat="46.12621" lon="8.71054">
        <ele>361.8</ele>
        <time>1970-01-01T01:00:00+01:00</time>
      </trkpt>
      <trkpt lat="46.12619" lon="8.71051">
        <ele>361.8</ele>
        <time>1970-01-01T01:00:00+01:00</time>
      </trkpt>
      <trkpt lat="46.12617" lon="8.71048">
        <ele>362.1</ele>
        <time>1970-01-01T01:00:00+01:00</time>
      </trkpt>
      <trkpt lat="46.12614" lon="8.71035">
        <ele>364</ele>
        <time>1970-01-01T01:00:00+01:00</time>
      </trkpt>
      <trkpt lat="46.12611" lon="8.71029">
        <ele>364</ele>
        <time>1970-01-01T01:00:00+01:00</time>
      </trkpt>
      <trkpt lat="46.12603" lon="8.71014">
        <ele>364.7</ele>
        <time>1970-01-01T01:00:00+01:00</time>
      </trkpt>
      <trkpt lat="46.126" lon="8.7101">
        <ele>365.1</ele>
        <time>1970-01-01T01:00:00+01:00</time>
      </trkpt>
      <trkpt lat="46.12594" lon="8.71004">
        <ele>365.1</ele>
        <time>1970-01-01T01:00:00+01:00</time>
      </trkpt>
      <trkpt lat="46.12589" lon="8.71">
        <ele>366.2</ele>
        <time>1970-01-01T01:00:00+01:00</time>
      </trkpt>
      <trkpt lat="46.12585" lon="8.70995">
        <ele>367</ele>
        <time>1970-01-01T01:00:00+01:00</time>
      </trkpt>
      <trkpt lat="46.12582" lon="8.70985">
        <ele>367.3</ele>
        <time>1970-01-01T01:00:00+01:00</time>
      </trkpt>
      <trkpt lat="46.12574" lon="8.70963">
        <ele>369.5</ele>
        <time>1970-01-01T01:00:00+01:00</time>
      </trkpt>
      <trkpt lat="46.12578" lon="8.70951">
        <ele>376.6</ele>
        <time>1970-01-01T01:00:00+01:00</time>
      </trkpt>
      <trkpt lat="46.12587" lon="8.70955">
        <ele>378</ele>
        <time>1970-01-01T01:00:00+01:00</time>
      </trkpt>
      <trkpt lat="46.12595" lon="8.70963">
        <ele>378.8</ele>
        <time>1970-01-01T01:00:00+01:00</time>
      </trkpt>
      <trkpt lat="46.12598" lon="8.70961">
        <ele>379.2</ele>
        <time>1970-01-01T01:00:00+01:00</time>
      </trkpt>
      <trkpt lat="46.12612" lon="8.70972">
        <ele>381</ele>
        <time>1970-01-01T01:00:00+01:00</time>
      </trkpt>
      <trkpt lat="46.12621" lon="8.70983">
        <ele>382.3</ele>
        <time>1970-01-01T01:00:00+01:00</time>
      </trkpt>
      <trkpt lat="46.12628" lon="8.70993">
        <ele>384</ele>
        <time>1970-01-01T01:00:00+01:00</time>
      </trkpt>
      <trkpt lat="46.12636" lon="8.71006">
        <ele>384.5</ele>
        <time>1970-01-01T01:00:00+01:00</time>
      </trkpt>
      <trkpt lat="46.12641" lon="8.71015">
        <ele>385.2</ele>
        <time>1970-01-01T01:00:00+01:00</time>
      </trkpt>
      <trkpt lat="46.12644" lon="8.71016">
        <ele>386.2</ele>
        <time>1970-01-01T01:00:00+01:00</time>
      </trkpt>
      <trkpt lat="46.12649" lon="8.71016">
        <ele>388.3</ele>
        <time>1970-01-01T01:00:00+01:00</time>
      </trkpt>
      <trkpt lat="46.12655" lon="8.71016">
        <ele>390.3</ele>
        <time>1970-01-01T01:00:00+01:00</time>
      </trkpt>
      <trkpt lat="46.12667" lon="8.71016">
        <ele>393.6</ele>
        <time>1970-01-01T01:00:00+01:00</time>
      </trkpt>
      <trkpt lat="46.12672" lon="8.71017">
        <ele>395.4</ele>
        <time>1970-01-01T01:00:00+01:00</time>
      </trkpt>
      <trkpt lat="46.12679" lon="8.71019">
        <ele>398.1</ele>
        <time>1970-01-01T01:00:00+01:00</time>
      </trkpt>
      <trkpt lat="46.12683" lon="8.71022">
        <ele>399.1</ele>
        <time>1970-01-01T01:00:00+01:00</time>
      </trkpt>
      <trkpt lat="46.12688" lon="8.71026">
        <ele>401.7</ele>
        <time>1970-01-01T01:00:00+01:00</time>
      </trkpt>
      <trkpt lat="46.12691" lon="8.71028">
        <ele>403.1</ele>
        <time>1970-01-01T01:00:00+01:00</time>
      </trkpt>
      <trkpt lat="46.12693" lon="8.71033">
        <ele>403.2</ele>
        <time>1970-01-01T01:00:00+01:00</time>
      </trkpt>
      <trkpt lat="46.12695" lon="8.71036">
        <ele>402.3</ele>
        <time>1970-01-01T01:00:00+01:00</time>
      </trkpt>
      <trkpt lat="46.12697" lon="8.71038">
        <ele>402.7</ele>
        <time>1970-01-01T01:00:00+01:00</time>
      </trkpt>
      <trkpt lat="46.12697" lon="8.71034">
        <ele>404.8</ele>
        <time>1970-01-01T01:00:00+01:00</time>
      </trkpt>
      <trkpt lat="46.12696" lon="8.71029">
        <ele>406.4</ele>
        <time>1970-01-01T01:00:00+01:00</time>
      </trkpt>
      <trkpt lat="46.12696" lon="8.71024">
        <ele>408.9</ele>
        <time>1970-01-01T01:00:00+01:00</time>
      </trkpt>
      <trkpt lat="46.12696" lon="8.7102">
        <ele>409.8</ele>
        <time>1970-01-01T01:00:00+01:00</time>
      </trkpt>
      <trkpt lat="46.12696" lon="8.71016">
        <ele>410</ele>
        <time>1970-01-01T01:00:00+01:00</time>
      </trkpt>
      <trkpt lat="46.12693" lon="8.71013">
        <ele>410.3</ele>
        <time>1970-01-01T01:00:00+01:00</time>
      </trkpt>
      <trkpt lat="46.12683" lon="8.70996">
        <ele>411.9</ele>
        <time>1970-01-01T01:00:00+01:00</time>
      </trkpt>
      <trkpt lat="46.12672" lon="8.70979">
        <ele>413.2</ele>
        <time>1970-01-01T01:00:00+01:00</time>
      </trkpt>
      <trkpt lat="46.12668" lon="8.7097">
        <ele>413.8</ele>
        <time>1970-01-01T01:00:00+01:00</time>
      </trkpt>
      <trkpt lat="46.12661" lon="8.70952">
        <ele>414.8</ele>
        <time>1970-01-01T01:00:00+01:00</time>
      </trkpt>
      <trkpt lat="46.12661" lon="8.7095">
        <ele>414.8</ele>
        <time>1970-01-01T01:00:00+01:00</time>
      </trkpt>
      <trkpt lat="46.12662" lon="8.70948">
        <ele>414.7</ele>
        <time>1970-01-01T01:00:00+01:00</time>
      </trkpt>
      <trkpt lat="46.12663" lon="8.70945">
        <ele>414.6</ele>
        <time>1970-01-01T01:00:00+01:00</time>
      </trkpt>
      <trkpt lat="46.12659" lon="8.70941">
        <ele>414</ele>
        <time>1970-01-01T01:00:00+01:00</time>
      </trkpt>
      <trkpt lat="46.1265" lon="8.70937">
        <ele>412.9</ele>
        <time>1970-01-01T01:00:00+01:00</time>
      </trkpt>
      <trkpt lat="46.12654" lon="8.7093">
        <ele>413.9</ele>
        <time>1970-01-01T01:00:00+01:00</time>
      </trkpt>
      <trkpt lat="46.12656" lon="8.70922">
        <ele>418.9</ele>
        <time>1970-01-01T01:00:00+01:00</time>
      </trkpt>
      <trkpt lat="46.12654" lon="8.70915">
        <ele>420.8</ele>
        <time>1970-01-01T01:00:00+01:00</time>
      </trkpt>
      <trkpt lat="46.12648" lon="8.70902">
        <ele>423.5</ele>
        <time>1970-01-01T01:00:00+01:00</time>
      </trkpt>
      <trkpt lat="46.12642" lon="8.70891">
        <ele>426.2</ele>
        <time>1970-01-01T01:00:00+01:00</time>
      </trkpt>
      <trkpt lat="46.12635" lon="8.7088">
        <ele>428.6</ele>
        <time>1970-01-01T01:00:00+01:00</time>
      </trkpt>
      <trkpt lat="46.12632" lon="8.70872">
        <ele>430.6</ele>
        <time>1970-01-01T01:00:00+01:00</time>
      </trkpt>
      <trkpt lat="46.12626" lon="8.7086">
        <ele>433.7</ele>
        <time>1970-01-01T01:00:00+01:00</time>
      </trkpt>
      <trkpt lat="46.12621" lon="8.70848">
        <ele>435.7</ele>
        <time>1970-01-01T01:00:00+01:00</time>
      </trkpt>
      <trkpt lat="46.12617" lon="8.70839">
        <ele>437.4</ele>
        <time>1970-01-01T01:00:00+01:00</time>
      </trkpt>
      <trkpt lat="46.12615" lon="8.70831">
        <ele>439</ele>
        <time>1970-01-01T01:00:00+01:00</time>
      </trkpt>
      <trkpt lat="46.12609" lon="8.70823">
        <ele>440.7</ele>
        <time>1970-01-01T01:00:00+01:00</time>
      </trkpt>
      <trkpt lat="46.12609" lon="8.7082">
        <ele>441.3</ele>
        <time>1970-01-01T01:00:00+01:00</time>
      </trkpt>
      <trkpt lat="46.12612" lon="8.7082">
        <ele>441.7</ele>
        <time>1970-01-01T01:00:00+01:00</time>
      </trkpt>
      <trkpt lat="46.12618" lon="8.70826">
        <ele>442.7</ele>
        <time>1970-01-01T01:00:00+01:00</time>
      </trkpt>
      <trkpt lat="46.12621" lon="8.70831">
        <ele>443.3</ele>
        <time>1970-01-01T01:00:00+01:00</time>
      </trkpt>
      <trkpt lat="46.12623" lon="8.70833">
        <ele>443.5</ele>
        <time>1970-01-01T01:00:00+01:00</time>
      </trkpt>
      <trkpt lat="46.12626" lon="8.70836">
        <ele>444.1</ele>
        <time>1970-01-01T01:00:00+01:00</time>
      </trkpt>
      <trkpt lat="46.12631" lon="8.70843">
        <ele>444.9</ele>
        <time>1970-01-01T01:00:00+01:00</time>
      </trkpt>
      <trkpt lat="46.12641" lon="8.7085">
        <ele>446.1</ele>
        <time>1970-01-01T01:00:00+01:00</time>
      </trkpt>
      <trkpt lat="46.12651" lon="8.70858">
        <ele>447.5</ele>
        <time>1970-01-01T01:00:00+01:00</time>
      </trkpt>
      <trkpt lat="46.12661" lon="8.70864">
        <ele>450.2</ele>
        <time>1970-01-01T01:00:00+01:00</time>
      </trkpt>
      <trkpt lat="46.12673" lon="8.70873">
        <ele>453</ele>
        <time>1970-01-01T01:00:00+01:00</time>
      </trkpt>
      <trkpt lat="46.12679" lon="8.70874">
        <ele>454</ele>
        <time>1970-01-01T01:00:00+01:00</time>
      </trkpt>
      <trkpt lat="46.12682" lon="8.70876">
        <ele>454.6</ele>
        <time>1970-01-01T01:00:00+01:00</time>
      </trkpt>
      <trkpt lat="46.12687" lon="8.70883">
        <ele>456.2</ele>
        <time>1970-01-01T01:00:00+01:00</time>
      </trkpt>
      <trkpt lat="46.12694" lon="8.70888">
        <ele>457.6</ele>
        <time>1970-01-01T01:00:00+01:00</time>
      </trkpt>
      <trkpt lat="46.12705" lon="8.70894">
        <ele>459.4</ele>
        <time>1970-01-01T01:00:00+01:00</time>
      </trkpt>
      <trkpt lat="46.12713" lon="8.709">
        <ele>460.6</ele>
        <time>1970-01-01T01:00:00+01:00</time>
      </trkpt>
      <trkpt lat="46.12722" lon="8.70905">
        <ele>462.3</ele>
        <time>1970-01-01T01:00:00+01:00</time>
      </trkpt>
      <trkpt lat="46.12726" lon="8.70906">
        <ele>462.9</ele>
        <time>1970-01-01T01:00:00+01:00</time>
      </trkpt>
      <trkpt lat="46.1273" lon="8.70913">
        <ele>464.1</ele>
        <time>1970-01-01T01:00:00+01:00</time>
      </trkpt>
      <trkpt lat="46.12736" lon="8.70919">
        <ele>465.9</ele>
        <time>1970-01-01T01:00:00+01:00</time>
      </trkpt>
      <trkpt lat="46.12741" lon="8.70925">
        <ele>467.1</ele>
        <time>1970-01-01T01:00:00+01:00</time>
      </trkpt>
      <trkpt lat="46.12747" lon="8.70933">
        <ele>468.8</ele>
        <time>1970-01-01T01:00:00+01:00</time>
      </trkpt>
      <trkpt lat="46.12757" lon="8.7094">
        <ele>470.9</ele>
        <time>1970-01-01T01:00:00+01:00</time>
      </trkpt>
      <trkpt lat="46.12763" lon="8.70946">
        <ele>472.1</ele>
        <time>1970-01-01T01:00:00+01:00</time>
      </trkpt>
      <trkpt lat="46.12772" lon="8.70951">
        <ele>473.3</ele>
        <time>1970-01-01T01:00:00+01:00</time>
      </trkpt>
      <trkpt lat="46.12781" lon="8.70953">
        <ele>474.9</ele>
        <time>1970-01-01T01:00:00+01:00</time>
      </trkpt>
      <trkpt lat="46.12788" lon="8.70954">
        <ele>476.4</ele>
        <time>1970-01-01T01:00:00+01:00</time>
      </trkpt>
      <trkpt lat="46.12797" lon="8.70952">
        <ele>477.9</ele>
        <time>1970-01-01T01:00:00+01:00</time>
      </trkpt>
      <trkpt lat="46.12804" lon="8.70949">
        <ele>479.3</ele>
        <time>1970-01-01T01:00:00+01:00</time>
      </trkpt>
      <trkpt lat="46.12817" lon="8.70948">
        <ele>481.6</ele>
        <time>1970-01-01T01:00:00+01:00</time>
      </trkpt>
      <trkpt lat="46.12821" lon="8.70946">
        <ele>481.8</ele>
        <time>1970-01-01T01:00:00+01:00</time>
      </trkpt>
      <trkpt lat="46.12826" lon="8.70943">
        <ele>482.4</ele>
        <time>1970-01-01T01:00:00+01:00</time>
      </trkpt>
      <trkpt lat="46.1283" lon="8.70938">
        <ele>483.8</ele>
        <time>1970-01-01T01:00:00+01:00</time>
      </trkpt>
      <trkpt lat="46.12832" lon="8.70936">
        <ele>484.2</ele>
        <time>1970-01-01T01:00:00+01:00</time>
      </trkpt>
      <trkpt lat="46.12839" lon="8.70936">
        <ele>485.3</ele>
        <time>1970-01-01T01:00:00+01:00</time>
      </trkpt>
      <trkpt lat="46.12846" lon="8.70934">
        <ele>486.3</ele>
        <time>1970-01-01T01:00:00+01:00</time>
      </trkpt>
      <trkpt lat="46.12852" lon="8.70931">
        <ele>487.5</ele>
        <time>1970-01-01T01:00:00+01:00</time>
      </trkpt>
      <trkpt lat="46.12855" lon="8.70927">
        <ele>488.4</ele>
        <time>1970-01-01T01:00:00+01:00</time>
      </trkpt>
      <trkpt lat="46.12859" lon="8.70923">
        <ele>489.1</ele>
        <time>1970-01-01T01:00:00+01:00</time>
      </trkpt>
      <trkpt lat="46.12864" lon="8.70924">
        <ele>490.2</ele>
        <time>1970-01-01T01:00:00+01:00</time>
      </trkpt>
      <trkpt lat="46.12871" lon="8.70924">
        <ele>491.7</ele>
        <time>1970-01-01T01:00:00+01:00</time>
      </trkpt>
      <trkpt lat="46.12875" lon="8.70924">
        <ele>492.7</ele>
        <time>1970-01-01T01:00:00+01:00</time>
      </trkpt>
      <trkpt lat="46.12881" lon="8.70918">
        <ele>493.7</ele>
        <time>1970-01-01T01:00:00+01:00</time>
      </trkpt>
      <trkpt lat="46.12886" lon="8.70913">
        <ele>494.7</ele>
        <time>1970-01-01T01:00:00+01:00</time>
      </trkpt>
      <trkpt lat="46.12893" lon="8.70902">
        <ele>496.3</ele>
        <time>1970-01-01T01:00:00+01:00</time>
      </trkpt>
      <trkpt lat="46.12901" lon="8.70899">
        <ele>497.3</ele>
        <time>1970-01-01T01:00:00+01:00</time>
      </trkpt>
      <trkpt lat="46.12907" lon="8.70896">
        <ele>498.2</ele>
        <time>1970-01-01T01:00:00+01:00</time>
      </trkpt>
      <trkpt lat="46.12911" lon="8.70891">
        <ele>499</ele>
        <time>1970-01-01T01:00:00+01:00</time>
      </trkpt>
      <trkpt lat="46.12915" lon="8.70885">
        <ele>500.4</ele>
        <time>1970-01-01T01:00:00+01:00</time>
      </trkpt>
      <trkpt lat="46.12922" lon="8.70869">
        <ele>502.8</ele>
        <time>1970-01-01T01:00:00+01:00</time>
      </trkpt>
      <trkpt lat="46.12925" lon="8.70851">
        <ele>505.4</ele>
        <time>1970-01-01T01:00:00+01:00</time>
      </trkpt>
      <trkpt lat="46.12928" lon="8.70836">
        <ele>507.6</ele>
        <time>1970-01-01T01:00:00+01:00</time>
      </trkpt>
      <trkpt lat="46.1293" lon="8.70822">
        <ele>508.9</ele>
        <time>1970-01-01T01:00:00+01:00</time>
      </trkpt>
      <trkpt lat="46.12932" lon="8.70819">
        <ele>509.6</ele>
        <time>1970-01-01T01:00:00+01:00</time>
      </trkpt>
      <trkpt lat="46.12946" lon="8.70827">
        <ele>511.6</ele>
        <time>1970-01-01T01:00:00+01:00</time>
      </trkpt>
      <trkpt lat="46.12952" lon="8.70831">
        <ele>512.7</ele>
        <time>1970-01-01T01:00:00+01:00</time>
      </trkpt>
      <trkpt lat="46.12959" lon="8.70845">
        <ele>514.6</ele>
        <time>1970-01-01T01:00:00+01:00</time>
      </trkpt>
      <trkpt lat="46.12965" lon="8.70852">
        <ele>515.6</ele>
        <time>1970-01-01T01:00:00+01:00</time>
      </trkpt>
      <trkpt lat="46.12971" lon="8.70856">
        <ele>516.9</ele>
        <time>1970-01-01T01:00:00+01:00</time>
      </trkpt>
      <trkpt lat="46.12973" lon="8.70853">
        <ele>517.2</ele>
        <time>1970-01-01T01:00:00+01:00</time>
      </trkpt>
      <trkpt lat="46.12973" lon="8.7085">
        <ele>517.6</ele>
        <time>1970-01-01T01:00:00+01:00</time>
      </trkpt>
      <trkpt lat="46.12972" lon="8.70837">
        <ele>518.6</ele>
        <time>1970-01-01T01:00:00+01:00</time>
      </trkpt>
      <trkpt lat="46.12972" lon="8.70827">
        <ele>519.4</ele>
        <time>1970-01-01T01:00:00+01:00</time>
      </trkpt>
      <trkpt lat="46.12971" lon="8.70814">
        <ele>520.3</ele>
        <time>1970-01-01T01:00:00+01:00</time>
      </trkpt>
      <trkpt lat="46.12972" lon="8.70802">
        <ele>521.1</ele>
        <time>1970-01-01T01:00:00+01:00</time>
      </trkpt>
      <trkpt lat="46.12976" lon="8.70787">
        <ele>522.8</ele>
        <time>1970-01-01T01:00:00+01:00</time>
      </trkpt>
      <trkpt lat="46.1298" lon="8.70781">
        <ele>523.1</ele>
        <time>1970-01-01T01:00:00+01:00</time>
      </trkpt>
      <trkpt lat="46.12982" lon="8.70773">
        <ele>523.6</ele>
        <time>1970-01-01T01:00:00+01:00</time>
      </trkpt>
      <trkpt lat="46.12985" lon="8.7076">
        <ele>524.6</ele>
        <time>1970-01-01T01:00:00+01:00</time>
      </trkpt>
      <trkpt lat="46.12987" lon="8.70738">
        <ele>526.6</ele>
        <time>1970-01-01T01:00:00+01:00</time>
      </trkpt>
      <trkpt lat="46.12988" lon="8.70717">
        <ele>528.5</ele>
        <time>1970-01-01T01:00:00+01:00</time>
      </trkpt>
      <trkpt lat="46.1299" lon="8.70702">
        <ele>530.5</ele>
        <time>1970-01-01T01:00:00+01:00</time>
      </trkpt>
      <trkpt lat="46.12991" lon="8.7069">
        <ele>532.2</ele>
        <time>1970-01-01T01:00:00+01:00</time>
      </trkpt>
      <trkpt lat="46.1299" lon="8.70669">
        <ele>536.7</ele>
        <time>1970-01-01T01:00:00+01:00</time>
      </trkpt>
      <trkpt lat="46.12988" lon="8.70655">
        <ele>538.7</ele>
        <time>1970-01-01T01:00:00+01:00</time>
      </trkpt>
      <trkpt lat="46.1299" lon="8.7064">
        <ele>540.8</ele>
        <time>1970-01-01T01:00:00+01:00</time>
      </trkpt>
      <trkpt lat="46.1299" lon="8.70629">
        <ele>544.3</ele>
        <time>1970-01-01T01:00:00+01:00</time>
      </trkpt>
      <trkpt lat="46.12992" lon="8.70622">
        <ele>543.7</ele>
        <time>1970-01-01T01:00:00+01:00</time>
      </trkpt>
      <trkpt lat="46.13004" lon="8.70609">
        <ele>542.5</ele>
        <time>1970-01-01T01:00:00+01:00</time>
      </trkpt>
      <trkpt lat="46.1301" lon="8.70612">
        <ele>542.5</ele>
        <time>1970-01-01T01:00:00+01:00</time>
      </trkpt>
      <trkpt lat="46.13015" lon="8.70615">
        <ele>544.7</ele>
        <time>1970-01-01T01:00:00+01:00</time>
      </trkpt>
      <trkpt lat="46.13018" lon="8.70618">
        <ele>545.4</ele>
        <time>1970-01-01T01:00:00+01:00</time>
      </trkpt>
      <trkpt lat="46.13019" lon="8.70629">
        <ele>547.6</ele>
        <time>1970-01-01T01:00:00+01:00</time>
      </trkpt>
      <trkpt lat="46.13021" lon="8.70636">
        <ele>549.3</ele>
        <time>1970-01-01T01:00:00+01:00</time>
      </trkpt>
      <trkpt lat="46.13024" lon="8.7064">
        <ele>550.4</ele>
        <time>1970-01-01T01:00:00+01:00</time>
      </trkpt>
      <trkpt lat="46.13028" lon="8.70645">
        <ele>551.6</ele>
        <time>1970-01-01T01:00:00+01:00</time>
      </trkpt>
      <trkpt lat="46.13034" lon="8.70653">
        <ele>553.7</ele>
        <time>1970-01-01T01:00:00+01:00</time>
      </trkpt>
      <trkpt lat="46.13038" lon="8.70664">
        <ele>555.6</ele>
        <time>1970-01-01T01:00:00+01:00</time>
      </trkpt>
      <trkpt lat="46.13042" lon="8.70676">
        <ele>557.4</ele>
        <time>1970-01-01T01:00:00+01:00</time>
      </trkpt>
      <trkpt lat="46.13046" lon="8.70693">
        <ele>560.4</ele>
        <time>1970-01-01T01:00:00+01:00</time>
      </trkpt>
      <trkpt lat="46.13049" lon="8.70709">
        <ele>563.2</ele>
        <time>1970-01-01T01:00:00+01:00</time>
      </trkpt>
      <trkpt lat="46.13053" lon="8.70726">
        <ele>566.2</ele>
        <time>1970-01-01T01:00:00+01:00</time>
      </trkpt>
      <trkpt lat="46.13056" lon="8.7074">
        <ele>568.9</ele>
        <time>1970-01-01T01:00:00+01:00</time>
      </trkpt>
      <trkpt lat="46.13058" lon="8.70748">
        <ele>569.9</ele>
        <time>1970-01-01T01:00:00+01:00</time>
      </trkpt>
      <trkpt lat="46.13062" lon="8.70754">
        <ele>571</ele>
        <time>1970-01-01T01:00:00+01:00</time>
      </trkpt>
      <trkpt lat="46.13062" lon="8.70749">
        <ele>571.8</ele>
        <time>1970-01-01T01:00:00+01:00</time>
      </trkpt>
      <trkpt lat="46.13066" lon="8.70729">
        <ele>575.7</ele>
        <time>1970-01-01T01:00:00+01:00</time>
      </trkpt>
      <trkpt lat="46.13069" lon="8.70721">
        <ele>577.8</ele>
        <time>1970-01-01T01:00:00+01:00</time>
      </trkpt>
      <trkpt lat="46.13074" lon="8.70707">
        <ele>580.5</ele>
        <time>1970-01-01T01:00:00+01:00</time>
      </trkpt>
      <trkpt lat="46.13076" lon="8.70701">
        <ele>582</ele>
        <time>1970-01-01T01:00:00+01:00</time>
      </trkpt>
      <trkpt lat="46.1308" lon="8.70696">
        <ele>583.3</ele>
        <time>1970-01-01T01:00:00+01:00</time>
      </trkpt>
      <trkpt lat="46.13084" lon="8.70693">
        <ele>584.6</ele>
        <time>1970-01-01T01:00:00+01:00</time>
      </trkpt>
      <trkpt lat="46.13093" lon="8.7069">
        <ele>586.9</ele>
        <time>1970-01-01T01:00:00+01:00</time>
      </trkpt>
      <trkpt lat="46.13096" lon="8.7069">
        <ele>588</ele>
        <time>1970-01-01T01:00:00+01:00</time>
      </trkpt>
      <trkpt lat="46.13109" lon="8.70699">
        <ele>592.3</ele>
        <time>1970-01-01T01:00:00+01:00</time>
      </trkpt>
      <trkpt lat="46.13115" lon="8.70702">
        <ele>594.4</ele>
        <time>1970-01-01T01:00:00+01:00</time>
      </trkpt>
      <trkpt lat="46.13121" lon="8.70708">
        <ele>596.7</ele>
        <time>1970-01-01T01:00:00+01:00</time>
      </trkpt>
      <trkpt lat="46.13124" lon="8.7071">
        <ele>597.4</ele>
        <time>1970-01-01T01:00:00+01:00</time>
      </trkpt>
      <trkpt lat="46.13129" lon="8.7071">
        <ele>599.2</ele>
        <time>1970-01-01T01:00:00+01:00</time>
      </trkpt>
      <trkpt lat="46.13133" lon="8.70711">
        <ele>600.9</ele>
        <time>1970-01-01T01:00:00+01:00</time>
      </trkpt>
      <trkpt lat="46.1314" lon="8.70716">
        <ele>603.4</ele>
        <time>1970-01-01T01:00:00+01:00</time>
      </trkpt>
      <trkpt lat="46.13141" lon="8.70717">
        <ele>603.8</ele>
        <time>1970-01-01T01:00:00+01:00</time>
      </trkpt>
      <trkpt lat="46.13141" lon="8.70717">
        <ele>603.8</ele>
      </trkpt>
      <trkpt lat="46.13145" lon="8.7072">
        <ele>605.6</ele>
        <time>1970-01-01T01:00:00+01:00</time>
      </trkpt>
      <trkpt lat="46.13149" lon="8.70726">
        <ele>607.4</ele>
        <time>1970-01-01T01:00:00+01:00</time>
      </trkpt>
      <trkpt lat="46.13153" lon="8.7073">
        <ele>608.9</ele>
        <time>1970-01-01T01:00:00+01:00</time>
      </trkpt>
      <trkpt lat="46.13157" lon="8.7073">
        <ele>609.9</ele>
        <time>1970-01-01T01:00:00+01:00</time>
      </trkpt>
      <trkpt lat="46.13163" lon="8.70727">
        <ele>611.9</ele>
        <time>1970-01-01T01:00:00+01:00</time>
      </trkpt>
      <trkpt lat="46.1317" lon="8.70726">
        <ele>613.4</ele>
        <time>1970-01-01T01:00:00+01:00</time>
      </trkpt>
      <trkpt lat="46.13177" lon="8.70726">
        <ele>615.1</ele>
        <time>1970-01-01T01:00:00+01:00</time>
      </trkpt>
      <trkpt lat="46.13184" lon="8.70729">
        <ele>617.2</ele>
        <time>1970-01-01T01:00:00+01:00</time>
      </trkpt>
      <trkpt lat="46.1319" lon="8.70731">
        <ele>618.2</ele>
        <time>1970-01-01T01:00:00+01:00</time>
      </trkpt>
      <trkpt lat="46.13196" lon="8.70729">
        <ele>619.5</ele>
        <time>1970-01-01T01:00:00+01:00</time>
      </trkpt>
      <trkpt lat="46.13201" lon="8.70723">
        <ele>621</ele>
        <time>1970-01-01T01:00:00+01:00</time>
      </trkpt>
      <trkpt lat="46.13207" lon="8.70717">
        <ele>623.1</ele>
        <time>1970-01-01T01:00:00+01:00</time>
      </trkpt>
      <trkpt lat="46.1321" lon="8.70715">
        <ele>623.9</ele>
        <time>1970-01-01T01:00:00+01:00</time>
      </trkpt>
      <trkpt lat="46.13216" lon="8.70712">
        <ele>625.4</ele>
        <time>1970-01-01T01:00:00+01:00</time>
      </trkpt>
      <trkpt lat="46.13227" lon="8.70705">
        <ele>628</ele>
        <time>1970-01-01T01:00:00+01:00</time>
      </trkpt>
      <trkpt lat="46.1324" lon="8.70694">
        <ele>631.5</ele>
        <time>1970-01-01T01:00:00+01:00</time>
      </trkpt>
      <trkpt lat="46.13247" lon="8.70689">
        <ele>633.2</ele>
        <time>1970-01-01T01:00:00+01:00</time>
      </trkpt>
      <trkpt lat="46.13254" lon="8.70684">
        <ele>635.3</ele>
        <time>1970-01-01T01:00:00+01:00</time>
      </trkpt>
      <trkpt lat="46.13259" lon="8.70684">
        <ele>636.9</ele>
        <time>1970-01-01T01:00:00+01:00</time>
      </trkpt>
      <trkpt lat="46.13265" lon="8.70683">
        <ele>637.2</ele>
        <time>1970-01-01T01:00:00+01:00</time>
      </trkpt>
      <trkpt lat="46.13275" lon="8.70673">
        <ele>639.5</ele>
        <time>1970-01-01T01:00:00+01:00</time>
      </trkpt>
      <trkpt lat="46.13279" lon="8.70672">
        <ele>640.2</ele>
        <time>1970-01-01T01:00:00+01:00</time>
      </trkpt>
      <trkpt lat="46.13284" lon="8.70672">
        <ele>639.2</ele>
        <time>1970-01-01T01:00:00+01:00</time>
      </trkpt>
      <trkpt lat="46.13285" lon="8.70668">
        <ele>638.2</ele>
        <time>1970-01-01T01:00:00+01:00</time>
      </trkpt>
      <trkpt lat="46.13287" lon="8.70657">
        <ele>639.9</ele>
        <time>1970-01-01T01:00:00+01:00</time>
      </trkpt>
      <trkpt lat="46.13287" lon="8.70647">
        <ele>642.5</ele>
        <time>1970-01-01T01:00:00+01:00</time>
      </trkpt>
      <trkpt lat="46.13287" lon="8.70637">
        <ele>644.8</ele>
        <time>1970-01-01T01:00:00+01:00</time>
      </trkpt>
      <trkpt lat="46.13287" lon="8.70624">
        <ele>645.3</ele>
        <time>1970-01-01T01:00:00+01:00</time>
      </trkpt>
      <trkpt lat="46.13287" lon="8.70611">
        <ele>644.6</ele>
        <time>1970-01-01T01:00:00+01:00</time>
      </trkpt>
      <trkpt lat="46.13288" lon="8.70598">
        <ele>645.3</ele>
        <time>1970-01-01T01:00:00+01:00</time>
      </trkpt>
      <trkpt lat="46.1329" lon="8.70588">
        <ele>646.3</ele>
        <time>1970-01-01T01:00:00+01:00</time>
      </trkpt>
      <trkpt lat="46.13294" lon="8.7058">
        <ele>645.7</ele>
        <time>1970-01-01T01:00:00+01:00</time>
      </trkpt>
      <trkpt lat="46.13297" lon="8.70578">
        <ele>645.9</ele>
        <time>1970-01-01T01:00:00+01:00</time>
      </trkpt>
      <trkpt lat="46.13299" lon="8.70594">
        <ele>646.7</ele>
        <time>1970-01-01T01:00:00+01:00</time>
      </trkpt>
      <trkpt lat="46.13302" lon="8.70603">
        <ele>647.1</ele>
        <time>1970-01-01T01:00:00+01:00</time>
      </trkpt>
      <trkpt lat="46.13305" lon="8.70609">
        <ele>648</ele>
        <time>1970-01-01T01:00:00+01:00</time>
      </trkpt>
      <trkpt lat="46.13309" lon="8.70621">
        <ele>649.9</ele>
        <time>1970-01-01T01:00:00+01:00</time>
      </trkpt>
      <trkpt lat="46.13313" lon="8.70631">
        <ele>650.8</ele>
        <time>1970-01-01T01:00:00+01:00</time>
      </trkpt>
      <trkpt lat="46.13315" lon="8.7064">
        <ele>652.2</ele>
        <time>1970-01-01T01:00:00+01:00</time>
      </trkpt>
      <trkpt lat="46.13315" lon="8.70648">
        <ele>652.8</ele>
        <time>1970-01-01T01:00:00+01:00</time>
      </trkpt>
      <trkpt lat="46.13319" lon="8.70654">
        <ele>654.3</ele>
        <time>1970-01-01T01:00:00+01:00</time>
      </trkpt>
      <trkpt lat="46.13323" lon="8.70667">
        <ele>655.7</ele>
        <time>1970-01-01T01:00:00+01:00</time>
      </trkpt>
      <trkpt lat="46.13325" lon="8.70672">
        <ele>656.3</ele>
        <time>1970-01-01T01:00:00+01:00</time>
      </trkpt>
      <trkpt lat="46.13328" lon="8.70677">
        <ele>657.4</ele>
        <time>1970-01-01T01:00:00+01:00</time>
      </trkpt>
      <trkpt lat="46.13331" lon="8.70685">
        <ele>658.6</ele>
        <time>1970-01-01T01:00:00+01:00</time>
      </trkpt>
      <trkpt lat="46.13333" lon="8.70693">
        <ele>659.5</ele>
        <time>1970-01-01T01:00:00+01:00</time>
      </trkpt>
      <trkpt lat="46.13336" lon="8.70698">
        <ele>660.4</ele>
        <time>1970-01-01T01:00:00+01:00</time>
      </trkpt>
      <trkpt lat="46.13339" lon="8.70704">
        <ele>661.6</ele>
        <time>1970-01-01T01:00:00+01:00</time>
      </trkpt>
      <trkpt lat="46.13339" lon="8.70713">
        <ele>662.9</ele>
        <time>1970-01-01T01:00:00+01:00</time>
      </trkpt>
      <trkpt lat="46.13339" lon="8.70722">
        <ele>664.4</ele>
        <time>1970-01-01T01:00:00+01:00</time>
      </trkpt>
      <trkpt lat="46.13338" lon="8.70727">
        <ele>665.2</ele>
        <time>1970-01-01T01:00:00+01:00</time>
      </trkpt>
      <trkpt lat="46.13336" lon="8.70732">
        <ele>666.2</ele>
        <time>1970-01-01T01:00:00+01:00</time>
      </trkpt>
      <trkpt lat="46.13329" lon="8.70742">
        <ele>668.4</ele>
        <time>1970-01-01T01:00:00+01:00</time>
      </trkpt>
      <trkpt lat="46.13327" lon="8.70748">
        <ele>669.4</ele>
        <time>1970-01-01T01:00:00+01:00</time>
      </trkpt>
      <trkpt lat="46.13325" lon="8.7076">
        <ele>670.8</ele>
        <time>1970-01-01T01:00:00+01:00</time>
      </trkpt>
      <trkpt lat="46.13325" lon="8.70765">
        <ele>671.6</ele>
        <time>1970-01-01T01:00:00+01:00</time>
      </trkpt>
      <trkpt lat="46.1333" lon="8.70772">
        <ele>673.7</ele>
        <time>1970-01-01T01:00:00+01:00</time>
      </trkpt>
      <trkpt lat="46.13335" lon="8.70782">
        <ele>675.8</ele>
        <time>1970-01-01T01:00:00+01:00</time>
      </trkpt>
      <trkpt lat="46.13339" lon="8.70792">
        <ele>677.4</ele>
        <time>1970-01-01T01:00:00+01:00</time>
      </trkpt>
      <trkpt lat="46.13343" lon="8.70799">
        <ele>678.7</ele>
        <time>1970-01-01T01:00:00+01:00</time>
      </trkpt>
      <trkpt lat="46.13346" lon="8.70801">
        <ele>679.6</ele>
        <time>1970-01-01T01:00:00+01:00</time>
      </trkpt>
      <trkpt lat="46.1335" lon="8.70809">
        <ele>681.1</ele>
        <time>1970-01-01T01:00:00+01:00</time>
      </trkpt>
      <trkpt lat="46.13356" lon="8.7082">
        <ele>683.9</ele>
        <time>1970-01-01T01:00:00+01:00</time>
      </trkpt>
      <trkpt lat="46.13361" lon="8.70824">
        <ele>685</ele>
        <time>1970-01-01T01:00:00+01:00</time>
      </trkpt>
      <trkpt lat="46.13362" lon="8.7083">
        <ele>686.2</ele>
        <time>1970-01-01T01:00:00+01:00</time>
      </trkpt>
      <trkpt lat="46.13365" lon="8.70835">
        <ele>686.7</ele>
        <time>1970-01-01T01:00:00+01:00</time>
      </trkpt>
      <trkpt lat="46.13372" lon="8.70846">
        <ele>688.6</ele>
        <time>1970-01-01T01:00:00+01:00</time>
      </trkpt>
      <trkpt lat="46.13377" lon="8.70851">
        <ele>689.4</ele>
        <time>1970-01-01T01:00:00+01:00</time>
      </trkpt>
      <trkpt lat="46.13385" lon="8.70856">
        <ele>691.5</ele>
        <time>1970-01-01T01:00:00+01:00</time>
      </trkpt>
      <trkpt lat="46.13389" lon="8.70857">
        <ele>693</ele>
        <time>1970-01-01T01:00:00+01:00</time>
      </trkpt>
      <trkpt lat="46.13393" lon="8.70855">
        <ele>693.1</ele>
        <time>1970-01-01T01:00:00+01:00</time>
      </trkpt>
      <trkpt lat="46.13397" lon="8.70854">
        <ele>693.4</ele>
        <time>1970-01-01T01:00:00+01:00</time>
      </trkpt>
      <trkpt lat="46.13398" lon="8.70856">
        <ele>693.6</ele>
        <time>1970-01-01T01:00:00+01:00</time>
      </trkpt>
      <trkpt lat="46.13402" lon="8.70863">
        <ele>694.3</ele>
        <time>1970-01-01T01:00:00+01:00</time>
      </trkpt>
      <trkpt lat="46.13406" lon="8.70873">
        <ele>695.7</ele>
        <time>1970-01-01T01:00:00+01:00</time>
      </trkpt>
      <trkpt lat="46.13409" lon="8.70876">
        <ele>696.3</ele>
        <time>1970-01-01T01:00:00+01:00</time>
      </trkpt>
      <trkpt lat="46.13412" lon="8.70878">
        <ele>696.9</ele>
        <time>1970-01-01T01:00:00+01:00</time>
      </trkpt>
      <trkpt lat="46.13415" lon="8.70878">
        <ele>697.5</ele>
        <time>1970-01-01T01:00:00+01:00</time>
      </trkpt>
      <trkpt lat="46.13421" lon="8.70875">
        <ele>698.5</ele>
        <time>1970-01-01T01:00:00+01:00</time>
      </trkpt>
      <trkpt lat="46.13425" lon="8.70873">
        <ele>699</ele>
        <time>1970-01-01T01:00:00+01:00</time>
      </trkpt>
      <trkpt lat="46.13428" lon="8.70874">
        <ele>699.1</ele>
        <time>1970-01-01T01:00:00+01:00</time>
      </trkpt>
      <trkpt lat="46.13435" lon="8.70876">
        <ele>700</ele>
        <time>1970-01-01T01:00:00+01:00</time>
      </trkpt>
      <trkpt lat="46.13439" lon="8.70877">
        <ele>700.5</ele>
        <time>1970-01-01T01:00:00+01:00</time>
      </trkpt>
      <trkpt lat="46.13445" lon="8.70877">
        <ele>701.1</ele>
        <time>1970-01-01T01:00:00+01:00</time>
      </trkpt>
      <trkpt lat="46.13451" lon="8.70874">
        <ele>701.8</ele>
        <time>1970-01-01T01:00:00+01:00</time>
      </trkpt>
      <trkpt lat="46.13457" lon="8.70869">
        <ele>703.3</ele>
        <time>1970-01-01T01:00:00+01:00</time>
      </trkpt>
      <trkpt lat="46.13464" lon="8.70862">
        <ele>704.7</ele>
        <time>1970-01-01T01:00:00+01:00</time>
      </trkpt>
      <trkpt lat="46.13469" lon="8.70858">
        <ele>705.6</ele>
        <time>1970-01-01T01:00:00+01:00</time>
      </trkpt>
      <trkpt lat="46.13473" lon="8.70851">
        <ele>706.6</ele>
        <time>1970-01-01T01:00:00+01:00</time>
      </trkpt>
      <trkpt lat="46.13476" lon="8.70849">
        <ele>707</ele>
        <time>1970-01-01T01:00:00+01:00</time>
      </trkpt>
      <trkpt lat="46.13479" lon="8.7085">
        <ele>706.9</ele>
        <time>1970-01-01T01:00:00+01:00</time>
      </trkpt>
      <trkpt lat="46.1348" lon="8.70852">
        <ele>707.5</ele>
        <time>1970-01-01T01:00:00+01:00</time>
      </trkpt>
      <trkpt lat="46.13481" lon="8.70859">
        <ele>708.6</ele>
        <time>1970-01-01T01:00:00+01:00</time>
      </trkpt>
      <trkpt lat="46.13483" lon="8.70865">
        <ele>709.5</ele>
        <time>1970-01-01T01:00:00+01:00</time>
      </trkpt>
      <trkpt lat="46.13486" lon="8.7087">
        <ele>710.5</ele>
        <time>1970-01-01T01:00:00+01:00</time>
      </trkpt>
      <trkpt lat="46.13489" lon="8.70872">
        <ele>711.6</ele>
        <time>1970-01-01T01:00:00+01:00</time>
      </trkpt>
      <trkpt lat="46.13494" lon="8.70877">
        <ele>713.1</ele>
        <time>1970-01-01T01:00:00+01:00</time>
      </trkpt>
      <trkpt lat="46.13501" lon="8.70883">
        <ele>715</ele>
        <time>1970-01-01T01:00:00+01:00</time>
      </trkpt>
      <trkpt lat="46.13504" lon="8.70888">
        <ele>715.5</ele>
        <time>1970-01-01T01:00:00+01:00</time>
      </trkpt>
      <trkpt lat="46.13511" lon="8.70898">
        <ele>717.7</ele>
        <time>1970-01-01T01:00:00+01:00</time>
      </trkpt>
      <trkpt lat="46.13515" lon="8.70904">
        <ele>720.1</ele>
        <time>1970-01-01T01:00:00+01:00</time>
      </trkpt>
      <trkpt lat="46.13521" lon="8.70913">
        <ele>721.9</ele>
        <time>1970-01-01T01:00:00+01:00</time>
      </trkpt>
      <trkpt lat="46.13529" lon="8.7092">
        <ele>723.8</ele>
        <time>1970-01-01T01:00:00+01:00</time>
      </trkpt>
      <trkpt lat="46.13533" lon="8.7092">
        <ele>724.7</ele>
        <time>1970-01-01T01:00:00+01:00</time>
      </trkpt>
      <trkpt lat="46.13533" lon="8.70918">
        <ele>725.5</ele>
        <time>1970-01-01T01:00:00+01:00</time>
      </trkpt>
      <trkpt lat="46.13531" lon="8.70913">
        <ele>726.5</ele>
        <time>1970-01-01T01:00:00+01:00</time>
      </trkpt>
      <trkpt lat="46.1353" lon="8.709">
        <ele>728.2</ele>
        <time>1970-01-01T01:00:00+01:00</time>
      </trkpt>
      <trkpt lat="46.1353" lon="8.70887">
        <ele>729.9</ele>
        <time>1970-01-01T01:00:00+01:00</time>
      </trkpt>
      <trkpt lat="46.13533" lon="8.70875">
        <ele>731.7</ele>
        <time>1970-01-01T01:00:00+01:00</time>
      </trkpt>
      <trkpt lat="46.13535" lon="8.70864">
        <ele>732.5</ele>
        <time>1970-01-01T01:00:00+01:00</time>
      </trkpt>
      <trkpt lat="46.13534" lon="8.70858">
        <ele>733.3</ele>
        <time>1970-01-01T01:00:00+01:00</time>
      </trkpt>
      <trkpt lat="46.13529" lon="8.70848">
        <ele>734.6</ele>
        <time>1970-01-01T01:00:00+01:00</time>
      </trkpt>
      <trkpt lat="46.13527" lon="8.70843">
        <ele>735.2</ele>
        <time>1970-01-01T01:00:00+01:00</time>
      </trkpt>
      <trkpt lat="46.13526" lon="8.70835">
        <ele>736.5</ele>
        <time>1970-01-01T01:00:00+01:00</time>
      </trkpt>
      <trkpt lat="46.13526" lon="8.70827">
        <ele>737.1</ele>
        <time>1970-01-01T01:00:00+01:00</time>
      </trkpt>
      <trkpt lat="46.13527" lon="8.70817">
        <ele>738.3</ele>
        <time>1970-01-01T01:00:00+01:00</time>
      </trkpt>
      <trkpt lat="46.13529" lon="8.7081">
        <ele>739.4</ele>
        <time>1970-01-01T01:00:00+01:00</time>
      </trkpt>
      <trkpt lat="46.1353" lon="8.70799">
        <ele>739.9</ele>
        <time>1970-01-01T01:00:00+01:00</time>
      </trkpt>
      <trkpt lat="46.13532" lon="8.70791">
        <ele>741.8</ele>
        <time>1970-01-01T01:00:00+01:00</time>
      </trkpt>
      <trkpt lat="46.13534" lon="8.70788">
        <ele>742.7</ele>
        <time>1970-01-01T01:00:00+01:00</time>
      </trkpt>
      <trkpt lat="46.13536" lon="8.7079">
        <ele>744</ele>
        <time>1970-01-01T01:00:00+01:00</time>
      </trkpt>
      <trkpt lat="46.13537" lon="8.70794">
        <ele>744.6</ele>
        <time>1970-01-01T01:00:00+01:00</time>
      </trkpt>
      <trkpt lat="46.13537" lon="8.70802">
        <ele>745.6</ele>
        <time>1970-01-01T01:00:00+01:00</time>
      </trkpt>
      <trkpt lat="46.1354" lon="8.7081">
        <ele>746.9</ele>
        <time>1970-01-01T01:00:00+01:00</time>
      </trkpt>
      <trkpt lat="46.13551" lon="8.70816">
        <ele>749.8</ele>
        <time>1970-01-01T01:00:00+01:00</time>
      </trkpt>
      <trkpt lat="46.13556" lon="8.7082">
        <ele>751.3</ele>
        <time>1970-01-01T01:00:00+01:00</time>
      </trkpt>
      <trkpt lat="46.1356" lon="8.70824">
        <ele>752.6</ele>
        <time>1970-01-01T01:00:00+01:00</time>
      </trkpt>
      <trkpt lat="46.13563" lon="8.70833">
        <ele>754.2</ele>
        <time>1970-01-01T01:00:00+01:00</time>
      </trkpt>
      <trkpt lat="46.13565" lon="8.70837">
        <ele>754.7</ele>
        <time>1970-01-01T01:00:00+01:00</time>
      </trkpt>
      <trkpt lat="46.13568" lon="8.70841">
        <ele>755.6</ele>
        <time>1970-01-01T01:00:00+01:00</time>
      </trkpt>
      <trkpt lat="46.13573" lon="8.70843">
        <ele>756.9</ele>
        <time>1970-01-01T01:00:00+01:00</time>
      </trkpt>
      <trkpt lat="46.13576" lon="8.70844">
        <ele>757.8</ele>
        <time>1970-01-01T01:00:00+01:00</time>
      </trkpt>
      <trkpt lat="46.13575" lon="8.70838">
        <ele>759.1</ele>
        <time>1970-01-01T01:00:00+01:00</time>
      </trkpt>
      <trkpt lat="46.13574" lon="8.70824">
        <ele>761.4</ele>
        <time>1970-01-01T01:00:00+01:00</time>
      </trkpt>
      <trkpt lat="46.13574" lon="8.70819">
        <ele>762.1</ele>
        <time>1970-01-01T01:00:00+01:00</time>
      </trkpt>
      <trkpt lat="46.13579" lon="8.70824">
        <ele>763.9</ele>
        <time>1970-01-01T01:00:00+01:00</time>
      </trkpt>
      <trkpt lat="46.13586" lon="8.70829">
        <ele>766.9</ele>
        <time>1970-01-01T01:00:00+01:00</time>
      </trkpt>
      <trkpt lat="46.13589" lon="8.70826">
        <ele>767.5</ele>
        <time>1970-01-01T01:00:00+01:00</time>
      </trkpt>
      <trkpt lat="46.13596" lon="8.70824">
        <ele>769.5</ele>
        <time>1970-01-01T01:00:00+01:00</time>
      </trkpt>
      <trkpt lat="46.13601" lon="8.70821">
        <ele>771.6</ele>
        <time>1970-01-01T01:00:00+01:00</time>
      </trkpt>
      <trkpt lat="46.13604" lon="8.70816">
        <ele>773</ele>
        <time>1970-01-01T01:00:00+01:00</time>
      </trkpt>
      <trkpt lat="46.13604" lon="8.70804">
        <ele>775.3</ele>
        <time>1970-01-01T01:00:00+01:00</time>
      </trkpt>
      <trkpt lat="46.13606" lon="8.70798">
        <ele>777</ele>
        <time>1970-01-01T01:00:00+01:00</time>
      </trkpt>
      <trkpt lat="46.13611" lon="8.70792">
        <ele>778.4</ele>
        <time>1970-01-01T01:00:00+01:00</time>
      </trkpt>
      <trkpt lat="46.13617" lon="8.70785">
        <ele>781.3</ele>
        <time>1970-01-01T01:00:00+01:00</time>
      </trkpt>
      <trkpt lat="46.13622" lon="8.7078">
        <ele>783.4</ele>
        <time>1970-01-01T01:00:00+01:00</time>
      </trkpt>
      <trkpt lat="46.13627" lon="8.70775">
        <ele>785.5</ele>
        <time>1970-01-01T01:00:00+01:00</time>
      </trkpt>
      <trkpt lat="46.13624" lon="8.7077">
        <ele>786.7</ele>
        <time>1970-01-01T01:00:00+01:00</time>
      </trkpt>
      <trkpt lat="46.13628" lon="8.70764">
        <ele>789.4</ele>
        <time>1970-01-01T01:00:00+01:00</time>
      </trkpt>
      <trkpt lat="46.13628" lon="8.70757">
        <ele>790.6</ele>
        <time>1970-01-01T01:00:00+01:00</time>
      </trkpt>
      <trkpt lat="46.13629" lon="8.70753">
        <ele>791.1</ele>
        <time>1970-01-01T01:00:00+01:00</time>
      </trkpt>
      <trkpt lat="46.13629" lon="8.70751">
        <ele>791.9</ele>
        <time>1970-01-01T01:00:00+01:00</time>
      </trkpt>
      <trkpt lat="46.13631" lon="8.70745">
        <ele>792.8</ele>
        <time>1970-01-01T01:00:00+01:00</time>
      </trkpt>
      <trkpt lat="46.13634" lon="8.70741">
        <ele>794.4</ele>
        <time>1970-01-01T01:00:00+01:00</time>
      </trkpt>
      <trkpt lat="46.13637" lon="8.70737">
        <ele>795.9</ele>
        <time>1970-01-01T01:00:00+01:00</time>
      </trkpt>
      <trkpt lat="46.13635" lon="8.70737">
        <ele>796.2</ele>
        <time>1970-01-01T01:00:00+01:00</time>
      </trkpt>
      <trkpt lat="46.13633" lon="8.70736">
        <ele>796.7</ele>
        <time>1970-01-01T01:00:00+01:00</time>
      </trkpt>
      <trkpt lat="46.1363" lon="8.70732">
        <ele>798</ele>
        <time>1970-01-01T01:00:00+01:00</time>
      </trkpt>
      <trkpt lat="46.1363" lon="8.70725">
        <ele>799.5</ele>
        <time>1970-01-01T01:00:00+01:00</time>
      </trkpt>
      <trkpt lat="46.13631" lon="8.70721">
        <ele>801.3</ele>
        <time>1970-01-01T01:00:00+01:00</time>
      </trkpt>
      <trkpt lat="46.13632" lon="8.70716">
        <ele>802.4</ele>
        <time>1970-01-01T01:00:00+01:00</time>
      </trkpt>
      <trkpt lat="46.13632" lon="8.70711">
        <ele>803.5</ele>
        <time>1970-01-01T01:00:00+01:00</time>
      </trkpt>
      <trkpt lat="46.13632" lon="8.70704">
        <ele>804.5</ele>
        <time>1970-01-01T01:00:00+01:00</time>
      </trkpt>
      <trkpt lat="46.13633" lon="8.70702">
        <ele>804.8</ele>
        <time>1970-01-01T01:00:00+01:00</time>
      </trkpt>
      <trkpt lat="46.13634" lon="8.70697">
        <ele>805.6</ele>
        <time>1970-01-01T01:00:00+01:00</time>
      </trkpt>
      <trkpt lat="46.13635" lon="8.70681">
        <ele>808.4</ele>
        <time>1970-01-01T01:00:00+01:00</time>
      </trkpt>
      <trkpt lat="46.13635" lon="8.70677">
        <ele>809</ele>
        <time>1970-01-01T01:00:00+01:00</time>
      </trkpt>
      <trkpt lat="46.13635" lon="8.70675">
        <ele>809.3</ele>
        <time>1970-01-01T01:00:00+01:00</time>
      </trkpt>
      <trkpt lat="46.13632" lon="8.7067">
        <ele>810.5</ele>
        <time>1970-01-01T01:00:00+01:00</time>
      </trkpt>
      <trkpt lat="46.13631" lon="8.70667">
        <ele>811.3</ele>
        <time>1970-01-01T01:00:00+01:00</time>
      </trkpt>
      <trkpt lat="46.13631" lon="8.70665">
        <ele>811.5</ele>
        <time>1970-01-01T01:00:00+01:00</time>
      </trkpt>
      <trkpt lat="46.13631" lon="8.70663">
        <ele>811.6</ele>
        <time>1970-01-01T01:00:00+01:00</time>
      </trkpt>
      <trkpt lat="46.13632" lon="8.70662">
        <ele>811.7</ele>
        <time>1970-01-01T01:00:00+01:00</time>
      </trkpt>
      <trkpt lat="46.13633" lon="8.70662">
        <ele>812.1</ele>
        <time>1970-01-01T01:00:00+01:00</time>
      </trkpt>
      <trkpt lat="46.13636" lon="8.70665">
        <ele>812.7</ele>
        <time>1970-01-01T01:00:00+01:00</time>
      </trkpt>
      <trkpt lat="46.13638" lon="8.70667">
        <ele>813.2</ele>
        <time>1970-01-01T01:00:00+01:00</time>
      </trkpt>
      <trkpt lat="46.1364" lon="8.70668">
        <ele>813.5</ele>
        <time>1970-01-01T01:00:00+01:00</time>
      </trkpt>
      <trkpt lat="46.13641" lon="8.70669">
        <ele>813.7</ele>
        <time>1970-01-01T01:00:00+01:00</time>
      </trkpt>
      <trkpt lat="46.13643" lon="8.70668">
        <ele>813.9</ele>
        <time>1970-01-01T01:00:00+01:00</time>
      </trkpt>
      <trkpt lat="46.13643" lon="8.70665">
        <ele>814.1</ele>
        <time>1970-01-01T01:00:00+01:00</time>
      </trkpt>
      <trkpt lat="46.13641" lon="8.70663">
        <ele>814.4</ele>
        <time>1970-01-01T01:00:00+01:00</time>
      </trkpt>
      <trkpt lat="46.13638" lon="8.70657">
        <ele>815.7</ele>
        <time>1970-01-01T01:00:00+01:00</time>
      </trkpt>
      <trkpt lat="46.13635" lon="8.70649">
        <ele>817.4</ele>
        <time>1970-01-01T01:00:00+01:00</time>
      </trkpt>
      <trkpt lat="46.13634" lon="8.70646">
        <ele>818</ele>
        <time>1970-01-01T01:00:00+01:00</time>
      </trkpt>
      <trkpt lat="46.13632" lon="8.7064">
        <ele>819.2</ele>
        <time>1970-01-01T01:00:00+01:00</time>
      </trkpt>
      <trkpt lat="46.1363" lon="8.70632">
        <ele>820.7</ele>
        <time>1970-01-01T01:00:00+01:00</time>
      </trkpt>
      <trkpt lat="46.13628" lon="8.70628">
        <ele>821.7</ele>
        <time>1970-01-01T01:00:00+01:00</time>
      </trkpt>
      <trkpt lat="46.13626" lon="8.70625">
        <ele>822.8</ele>
        <time>1970-01-01T01:00:00+01:00</time>
      </trkpt>
      <trkpt lat="46.13624" lon="8.70622">
        <ele>823.4</ele>
        <time>1970-01-01T01:00:00+01:00</time>
      </trkpt>
      <trkpt lat="46.13621" lon="8.70619">
        <ele>824.5</ele>
        <time>1970-01-01T01:00:00+01:00</time>
      </trkpt>
      <trkpt lat="46.13617" lon="8.70616">
        <ele>826</ele>
        <time>1970-01-01T01:00:00+01:00</time>
      </trkpt>
      <trkpt lat="46.13614" lon="8.70612">
        <ele>827.2</ele>
        <time>1970-01-01T01:00:00+01:00</time>
      </trkpt>
      <trkpt lat="46.13611" lon="8.70608">
        <ele>828.2</ele>
        <time>1970-01-01T01:00:00+01:00</time>
      </trkpt>
      <trkpt lat="46.1361" lon="8.70605">
        <ele>828.8</ele>
        <time>1970-01-01T01:00:00+01:00</time>
      </trkpt>
      <trkpt lat="46.13609" lon="8.70602">
        <ele>829.6</ele>
        <time>1970-01-01T01:00:00+01:00</time>
      </trkpt>
      <trkpt lat="46.13608" lon="8.70598">
        <ele>830.3</ele>
        <time>1970-01-01T01:00:00+01:00</time>
      </trkpt>
      <trkpt lat="46.13608" lon="8.70596">
        <ele>830.7</ele>
        <time>1970-01-01T01:00:00+01:00</time>
      </trkpt>
      <trkpt lat="46.13609" lon="8.70593">
        <ele>831.1</ele>
        <time>1970-01-01T01:00:00+01:00</time>
      </trkpt>
      <trkpt lat="46.13611" lon="8.7059">
        <ele>832</ele>
        <time>1970-01-01T01:00:00+01:00</time>
      </trkpt>
      <trkpt lat="46.13614" lon="8.70589">
        <ele>832.6</ele>
        <time>1970-01-01T01:00:00+01:00</time>
      </trkpt>
      <trkpt lat="46.13616" lon="8.70589">
        <ele>833.3</ele>
        <time>1970-01-01T01:00:00+01:00</time>
      </trkpt>
      <trkpt lat="46.1362" lon="8.70589">
        <ele>834.3</ele>
        <time>1970-01-01T01:00:00+01:00</time>
      </trkpt>
      <trkpt lat="46.13626" lon="8.7059">
        <ele>835.7</ele>
        <time>1970-01-01T01:00:00+01:00</time>
      </trkpt>
      <trkpt lat="46.13632" lon="8.70589">
        <ele>836.9</ele>
        <time>1970-01-01T01:00:00+01:00</time>
      </trkpt>
      <trkpt lat="46.13637" lon="8.70589">
        <ele>838</ele>
        <time>1970-01-01T01:00:00+01:00</time>
      </trkpt>
      <trkpt lat="46.13646" lon="8.7059">
        <ele>840.3</ele>
        <time>1970-01-01T01:00:00+01:00</time>
      </trkpt>
      <trkpt lat="46.13653" lon="8.70589">
        <ele>842.1</ele>
        <time>1970-01-01T01:00:00+01:00</time>
      </trkpt>
      <trkpt lat="46.13659" lon="8.70589">
        <ele>843.4</ele>
        <time>1970-01-01T01:00:00+01:00</time>
      </trkpt>
      <trkpt lat="46.13662" lon="8.7059">
        <ele>844.2</ele>
        <time>1970-01-01T01:00:00+01:00</time>
      </trkpt>
      <trkpt lat="46.13668" lon="8.70594">
        <ele>845.4</ele>
        <time>1970-01-01T01:00:00+01:00</time>
      </trkpt>
      <trkpt lat="46.13674" lon="8.70598">
        <ele>846.7</ele>
        <time>1970-01-01T01:00:00+01:00</time>
      </trkpt>
      <trkpt lat="46.13677" lon="8.706">
        <ele>847.3</ele>
        <time>1970-01-01T01:00:00+01:00</time>
      </trkpt>
      <trkpt lat="46.13681" lon="8.70602">
        <ele>848.2</ele>
        <time>1970-01-01T01:00:00+01:00</time>
      </trkpt>
      <trkpt lat="46.13684" lon="8.70602">
        <ele>848.6</ele>
        <time>1970-01-01T01:00:00+01:00</time>
      </trkpt>
      <trkpt lat="46.13686" lon="8.70601">
        <ele>848.9</ele>
        <time>1970-01-01T01:00:00+01:00</time>
      </trkpt>
      <trkpt lat="46.13686" lon="8.706">
        <ele>849.1</ele>
        <time>1970-01-01T01:00:00+01:00</time>
      </trkpt>
      <trkpt lat="46.13686" lon="8.70598">
        <ele>849.2</ele>
        <time>1970-01-01T01:00:00+01:00</time>
      </trkpt>
      <trkpt lat="46.13685" lon="8.70597">
        <ele>849.4</ele>
        <time>1970-01-01T01:00:00+01:00</time>
      </trkpt>
      <trkpt lat="46.13681" lon="8.70595">
        <ele>850</ele>
        <time>1970-01-01T01:00:00+01:00</time>
      </trkpt>
      <trkpt lat="46.13679" lon="8.70594">
        <ele>850.5</ele>
        <time>1970-01-01T01:00:00+01:00</time>
      </trkpt>
      <trkpt lat="46.13677" lon="8.70592">
        <ele>851.1</ele>
        <time>1970-01-01T01:00:00+01:00</time>
      </trkpt>
      <trkpt lat="46.13676" lon="8.70589">
        <ele>851.3</ele>
        <time>1970-01-01T01:00:00+01:00</time>
      </trkpt>
      <trkpt lat="46.13676" lon="8.70588">
        <ele>851.7</ele>
        <time>1970-01-01T01:00:00+01:00</time>
      </trkpt>
      <trkpt lat="46.13676" lon="8.70586">
        <ele>852</ele>
        <time>1970-01-01T01:00:00+01:00</time>
      </trkpt>
      <trkpt lat="46.13677" lon="8.70585">
        <ele>852.3</ele>
        <time>1970-01-01T01:00:00+01:00</time>
      </trkpt>
      <trkpt lat="46.13679" lon="8.70586">
        <ele>852.7</ele>
        <time>1970-01-01T01:00:00+01:00</time>
      </trkpt>
      <trkpt lat="46.13683" lon="8.70588">
        <ele>853.8</ele>
        <time>1970-01-01T01:00:00+01:00</time>
      </trkpt>
      <trkpt lat="46.13686" lon="8.70588">
        <ele>854.4</ele>
        <time>1970-01-01T01:00:00+01:00</time>
      </trkpt>
      <trkpt lat="46.13688" lon="8.70588">
        <ele>855</ele>
        <time>1970-01-01T01:00:00+01:00</time>
      </trkpt>
      <trkpt lat="46.13693" lon="8.70586">
        <ele>856.6</ele>
        <time>1970-01-01T01:00:00+01:00</time>
      </trkpt>
      <trkpt lat="46.13698" lon="8.70583">
        <ele>858.1</ele>
        <time>1970-01-01T01:00:00+01:00</time>
      </trkpt>
      <trkpt lat="46.13703" lon="8.7058">
        <ele>859.8</ele>
        <time>1970-01-01T01:00:00+01:00</time>
      </trkpt>
      <trkpt lat="46.13709" lon="8.70578">
        <ele>861.3</ele>
        <time>1970-01-01T01:00:00+01:00</time>
      </trkpt>
      <trkpt lat="46.13715" lon="8.70575">
        <ele>862.8</ele>
        <time>1970-01-01T01:00:00+01:00</time>
      </trkpt>
      <trkpt lat="46.13723" lon="8.70571">
        <ele>865.7</ele>
        <time>1970-01-01T01:00:00+01:00</time>
      </trkpt>
      <trkpt lat="46.13727" lon="8.70569">
        <ele>867</ele>
        <time>1970-01-01T01:00:00+01:00</time>
      </trkpt>
      <trkpt lat="46.13729" lon="8.70568">
        <ele>867.1</ele>
        <time>1970-01-01T01:00:00+01:00</time>
      </trkpt>
      <trkpt lat="46.13732" lon="8.70567">
        <ele>867.1</ele>
        <time>1970-01-01T01:00:00+01:00</time>
      </trkpt>
      <trkpt lat="46.13737" lon="8.70568">
        <ele>868</ele>
        <time>1970-01-01T01:00:00+01:00</time>
      </trkpt>
      <trkpt lat="46.13744" lon="8.70571">
        <ele>870.1</ele>
        <time>1970-01-01T01:00:00+01:00</time>
      </trkpt>
      <trkpt lat="46.13749" lon="8.70571">
        <ele>871.7</ele>
        <time>1970-01-01T01:00:00+01:00</time>
      </trkpt>
      <trkpt lat="46.13757" lon="8.70571">
        <ele>873.9</ele>
        <time>1970-01-01T01:00:00+01:00</time>
      </trkpt>
      <trkpt lat="46.1376" lon="8.7057">
        <ele>875.3</ele>
        <time>1970-01-01T01:00:00+01:00</time>
      </trkpt>
      <trkpt lat="46.13765" lon="8.70569">
        <ele>876.7</ele>
        <time>1970-01-01T01:00:00+01:00</time>
      </trkpt>
      <trkpt lat="46.13769" lon="8.70571">
        <ele>877.3</ele>
        <time>1970-01-01T01:00:00+01:00</time>
      </trkpt>
      <trkpt lat="46.1377" lon="8.70573">
        <ele>877.4</ele>
        <time>1970-01-01T01:00:00+01:00</time>
      </trkpt>
      <trkpt lat="46.1377" lon="8.70578">
        <ele>877.8</ele>
        <time>1970-01-01T01:00:00+01:00</time>
      </trkpt>
      <trkpt lat="46.13773" lon="8.70584">
        <ele>878.9</ele>
        <time>1970-01-01T01:00:00+01:00</time>
      </trkpt>
      <trkpt lat="46.13776" lon="8.70586">
        <ele>879.7</ele>
        <time>1970-01-01T01:00:00+01:00</time>
      </trkpt>
      <trkpt lat="46.1378" lon="8.70589">
        <ele>881.3</ele>
        <time>1970-01-01T01:00:00+01:00</time>
      </trkpt>
      <trkpt lat="46.13783" lon="8.70591">
        <ele>882.4</ele>
        <time>1970-01-01T01:00:00+01:00</time>
      </trkpt>
      <trkpt lat="46.13785" lon="8.70594">
        <ele>883.2</ele>
        <time>1970-01-01T01:00:00+01:00</time>
      </trkpt>
      <trkpt lat="46.13789" lon="8.70598">
        <ele>884.5</ele>
        <time>1970-01-01T01:00:00+01:00</time>
      </trkpt>
      <trkpt lat="46.13794" lon="8.70607">
        <ele>884.4</ele>
        <time>1970-01-01T01:00:00+01:00</time>
      </trkpt>
      <trkpt lat="46.13797" lon="8.70602">
        <ele>885.6</ele>
        <time>1970-01-01T01:00:00+01:00</time>
      </trkpt>
      <trkpt lat="46.138" lon="8.70597">
        <ele>887.1</ele>
        <time>1970-01-01T01:00:00+01:00</time>
      </trkpt>
      <trkpt lat="46.13803" lon="8.70592">
        <ele>888.9</ele>
        <time>1970-01-01T01:00:00+01:00</time>
      </trkpt>
      <trkpt lat="46.13805" lon="8.70587">
        <ele>890.5</ele>
        <time>1970-01-01T01:00:00+01:00</time>
      </trkpt>
      <trkpt lat="46.13807" lon="8.70581">
        <ele>892.7</ele>
        <time>1970-01-01T01:00:00+01:00</time>
      </trkpt>
      <trkpt lat="46.1381" lon="8.70576">
        <ele>894.7</ele>
        <time>1970-01-01T01:00:00+01:00</time>
      </trkpt>
      <trkpt lat="46.13815" lon="8.70579">
        <ele>894.8</ele>
        <time>1970-01-01T01:00:00+01:00</time>
      </trkpt>
      <trkpt lat="46.13816" lon="8.70583">
        <ele>895</ele>
        <time>1970-01-01T01:00:00+01:00</time>
      </trkpt>
      <trkpt lat="46.1382" lon="8.70589">
        <ele>895.7</ele>
        <time>1970-01-01T01:00:00+01:00</time>
      </trkpt>
      <trkpt lat="46.13826" lon="8.70598">
        <ele>896.6</ele>
        <time>1970-01-01T01:00:00+01:00</time>
      </trkpt>
      <trkpt lat="46.13831" lon="8.70606">
        <ele>896.2</ele>
        <time>1970-01-01T01:00:00+01:00</time>
      </trkpt>
      <trkpt lat="46.13835" lon="8.70608">
        <ele>896.9</ele>
        <time>1970-01-01T01:00:00+01:00</time>
      </trkpt>
      <trkpt lat="46.13838" lon="8.70611">
        <ele>897.6</ele>
        <time>1970-01-01T01:00:00+01:00</time>
      </trkpt>
      <trkpt lat="46.13841" lon="8.70619">
        <ele>896.7</ele>
        <time>1970-01-01T01:00:00+01:00</time>
      </trkpt>
      <trkpt lat="46.13846" lon="8.70624">
        <ele>897.1</ele>
        <time>1970-01-01T01:00:00+01:00</time>
      </trkpt>
      <trkpt lat="46.13852" lon="8.70629">
        <ele>897.7</ele>
        <time>1970-01-01T01:00:00+01:00</time>
      </trkpt>
      <trkpt lat="46.13858" lon="8.70641">
        <ele>898.5</ele>
        <time>1970-01-01T01:00:00+01:00</time>
      </trkpt>
      <trkpt lat="46.13865" lon="8.70648">
        <ele>899.5</ele>
        <time>1970-01-01T01:00:00+01:00</time>
      </trkpt>
      <trkpt lat="46.13872" lon="8.70657">
        <ele>900.6</ele>
        <time>1970-01-01T01:00:00+01:00</time>
      </trkpt>
      <trkpt lat="46.13879" lon="8.7066">
        <ele>900.7</ele>
        <time>1970-01-01T01:00:00+01:00</time>
      </trkpt>
      <trkpt lat="46.13891" lon="8.70663">
        <ele>901.3</ele>
        <time>1970-01-01T01:00:00+01:00</time>
      </trkpt>
      <trkpt lat="46.13905" lon="8.70662">
        <ele>903.3</ele>
        <time>1970-01-01T01:00:00+01:00</time>
      </trkpt>
      <trkpt lat="46.13909" lon="8.70659">
        <ele>904.1</ele>
        <time>1970-01-01T01:00:00+01:00</time>
      </trkpt>
      <trkpt lat="46.13913" lon="8.70656">
        <ele>905</ele>
        <time>1970-01-01T01:00:00+01:00</time>
      </trkpt>
      <trkpt lat="46.13917" lon="8.70653">
        <ele>906.3</ele>
        <time>1970-01-01T01:00:00+01:00</time>
      </trkpt>
      <trkpt lat="46.13925" lon="8.70653">
        <ele>906.4</ele>
        <time>1970-01-01T01:00:00+01:00</time>
      </trkpt>
      <trkpt lat="46.13934" lon="8.70652">
        <ele>906.4</ele>
        <time>1970-01-01T01:00:00+01:00</time>
      </trkpt>
      <trkpt lat="46.13937" lon="8.7065">
        <ele>907.1</ele>
        <time>1970-01-01T01:00:00+01:00</time>
      </trkpt>
      <trkpt lat="46.13941" lon="8.70647">
        <ele>908.5</ele>
        <time>1970-01-01T01:00:00+01:00</time>
      </trkpt>
      <trkpt lat="46.13948" lon="8.70648">
        <ele>908</ele>
        <time>1970-01-01T01:00:00+01:00</time>
      </trkpt>
      <trkpt lat="46.13956" lon="8.7065">
        <ele>909.6</ele>
        <time>1970-01-01T01:00:00+01:00</time>
      </trkpt>
      <trkpt lat="46.13959" lon="8.70649">
        <ele>909.8</ele>
        <time>1970-01-01T01:00:00+01:00</time>
      </trkpt>
      <trkpt lat="46.13962" lon="8.70647">
        <ele>911</ele>
        <time>1970-01-01T01:00:00+01:00</time>
      </trkpt>
      <trkpt lat="46.13966" lon="8.70647">
        <ele>910.7</ele>
        <time>1970-01-01T01:00:00+01:00</time>
      </trkpt>
      <trkpt lat="46.13969" lon="8.70645">
        <ele>911.3</ele>
        <time>1970-01-01T01:00:00+01:00</time>
      </trkpt>
      <trkpt lat="46.13975" lon="8.70645">
        <ele>911.8</ele>
        <time>1970-01-01T01:00:00+01:00</time>
      </trkpt>
      <trkpt lat="46.13971" lon="8.70642">
        <ele>912.8</ele>
        <time>1970-01-01T01:00:00+01:00</time>
      </trkpt>
      <trkpt lat="46.13966" lon="8.70638">
        <ele>915.3</ele>
        <time>1970-01-01T01:00:00+01:00</time>
      </trkpt>
      <trkpt lat="46.13964" lon="8.70638">
        <ele>915.7</ele>
        <time>1970-01-01T01:00:00+01:00</time>
      </trkpt>
      <trkpt lat="46.13959" lon="8.70634">
        <ele>917.4</ele>
        <time>1970-01-01T01:00:00+01:00</time>
      </trkpt>
      <trkpt lat="46.13953" lon="8.70631">
        <ele>918.6</ele>
        <time>1970-01-01T01:00:00+01:00</time>
      </trkpt>
      <trkpt lat="46.13948" lon="8.70628">
        <ele>920.2</ele>
        <time>1970-01-01T01:00:00+01:00</time>
      </trkpt>
      <trkpt lat="46.13943" lon="8.70622">
        <ele>922.6</ele>
        <time>1970-01-01T01:00:00+01:00</time>
      </trkpt>
      <trkpt lat="46.13938" lon="8.70619">
        <ele>924.1</ele>
        <time>1970-01-01T01:00:00+01:00</time>
      </trkpt>
      <trkpt lat="46.1393" lon="8.70621">
        <ele>925.7</ele>
        <time>1970-01-01T01:00:00+01:00</time>
      </trkpt>
      <trkpt lat="46.13925" lon="8.70621">
        <ele>927</ele>
        <time>1970-01-01T01:00:00+01:00</time>
      </trkpt>
      <trkpt lat="46.13921" lon="8.70619">
        <ele>928.3</ele>
        <time>1970-01-01T01:00:00+01:00</time>
      </trkpt>
      <trkpt lat="46.13924" lon="8.70615">
        <ele>929.5</ele>
        <time>1970-01-01T01:00:00+01:00</time>
      </trkpt>
      <trkpt lat="46.13927" lon="8.70609">
        <ele>931.4</ele>
        <time>1970-01-01T01:00:00+01:00</time>
      </trkpt>
      <trkpt lat="46.13929" lon="8.70602">
        <ele>933</ele>
        <time>1970-01-01T01:00:00+01:00</time>
      </trkpt>
      <trkpt lat="46.13932" lon="8.706">
        <ele>934</ele>
        <time>1970-01-01T01:00:00+01:00</time>
      </trkpt>
      <trkpt lat="46.13932" lon="8.70597">
        <ele>934.5</ele>
        <time>1970-01-01T01:00:00+01:00</time>
      </trkpt>
      <trkpt lat="46.13928" lon="8.70596">
        <ele>935.2</ele>
        <time>1970-01-01T01:00:00+01:00</time>
      </trkpt>
      <trkpt lat="46.13922" lon="8.70596">
        <ele>937.2</ele>
        <time>1970-01-01T01:00:00+01:00</time>
      </trkpt>
      <trkpt lat="46.13916" lon="8.70595">
        <ele>937.5</ele>
        <time>1970-01-01T01:00:00+01:00</time>
      </trkpt>
      <trkpt lat="46.1391" lon="8.70588">
        <ele>938.5</ele>
        <time>1970-01-01T01:00:00+01:00</time>
      </trkpt>
      <trkpt lat="46.13904" lon="8.70577">
        <ele>940.3</ele>
        <time>1970-01-01T01:00:00+01:00</time>
      </trkpt>
      <trkpt lat="46.13899" lon="8.70561">
        <ele>943.7</ele>
        <time>1970-01-01T01:00:00+01:00</time>
      </trkpt>
      <trkpt lat="46.13892" lon="8.7054">
        <ele>947.6</ele>
        <time>1970-01-01T01:00:00+01:00</time>
      </trkpt>
      <trkpt lat="46.13891" lon="8.70537">
        <ele>947.9</ele>
        <time>1970-01-01T01:00:00+01:00</time>
      </trkpt>
      <trkpt lat="46.13887" lon="8.70527">
        <ele>949.3</ele>
        <time>1970-01-01T01:00:00+01:00</time>
      </trkpt>
      <trkpt lat="46.13883" lon="8.70518">
        <ele>951</ele>
        <time>1970-01-01T01:00:00+01:00</time>
      </trkpt>
      <trkpt lat="46.13879" lon="8.70507">
        <ele>953.1</ele>
        <time>1970-01-01T01:00:00+01:00</time>
      </trkpt>
      <trkpt lat="46.13879" lon="8.70499">
        <ele>955.3</ele>
        <time>1970-01-01T01:00:00+01:00</time>
      </trkpt>
      <trkpt lat="46.13877" lon="8.70492">
        <ele>956.9</ele>
        <time>1970-01-01T01:00:00+01:00</time>
      </trkpt>
      <trkpt lat="46.13872" lon="8.70475">
        <ele>961.1</ele>
        <time>1970-01-01T01:00:00+01:00</time>
      </trkpt>
      <trkpt lat="46.13871" lon="8.70466">
        <ele>963.8</ele>
        <time>1970-01-01T01:00:00+01:00</time>
      </trkpt>
      <trkpt lat="46.13871" lon="8.70459">
        <ele>965.5</ele>
        <time>1970-01-01T01:00:00+01:00</time>
      </trkpt>
      <trkpt lat="46.1388" lon="8.70462">
        <ele>968.4</ele>
        <time>1970-01-01T01:00:00+01:00</time>
      </trkpt>
      <trkpt lat="46.13887" lon="8.70465">
        <ele>969.8</ele>
        <time>1970-01-01T01:00:00+01:00</time>
      </trkpt>
      <trkpt lat="46.13896" lon="8.70471">
        <ele>972.7</ele>
        <time>1970-01-01T01:00:00+01:00</time>
      </trkpt>
      <trkpt lat="46.13899" lon="8.70474">
        <ele>973.1</ele>
        <time>1970-01-01T01:00:00+01:00</time>
      </trkpt>
      <trkpt lat="46.13903" lon="8.70477">
        <ele>974.1</ele>
        <time>1970-01-01T01:00:00+01:00</time>
      </trkpt>
      <trkpt lat="46.13913" lon="8.70481">
        <ele>976.5</ele>
        <time>1970-01-01T01:00:00+01:00</time>
      </trkpt>
      <trkpt lat="46.13924" lon="8.70488">
        <ele>979.3</ele>
        <time>1970-01-01T01:00:00+01:00</time>
      </trkpt>
      <trkpt lat="46.13933" lon="8.70493">
        <ele>981.5</ele>
        <time>1970-01-01T01:00:00+01:00</time>
      </trkpt>
      <trkpt lat="46.13942" lon="8.70498">
        <ele>984.2</ele>
        <time>1970-01-01T01:00:00+01:00</time>
      </trkpt>
      <trkpt lat="46.13955" lon="8.70501">
        <ele>988.5</ele>
        <time>1970-01-01T01:00:00+01:00</time>
      </trkpt>
      <trkpt lat="46.13962" lon="8.70501">
        <ele>990.7</ele>
        <time>1970-01-01T01:00:00+01:00</time>
      </trkpt>
      <trkpt lat="46.13968" lon="8.70499">
        <ele>993.3</ele>
        <time>1970-01-01T01:00:00+01:00</time>
      </trkpt>
      <trkpt lat="46.13968" lon="8.70497">
        <ele>994.2</ele>
        <time>1970-01-01T01:00:00+01:00</time>
      </trkpt>
      <trkpt lat="46.13965" lon="8.70493">
        <ele>994.9</ele>
        <time>1970-01-01T01:00:00+01:00</time>
      </trkpt>
      <trkpt lat="46.13965" lon="8.7049">
        <ele>995.7</ele>
        <time>1970-01-01T01:00:00+01:00</time>
      </trkpt>
      <trkpt lat="46.13972" lon="8.70489">
        <ele>998</ele>
        <time>1970-01-01T01:00:00+01:00</time>
      </trkpt>
      <trkpt lat="46.13981" lon="8.70485">
        <ele>1000.1</ele>
        <time>1970-01-01T01:00:00+01:00</time>
      </trkpt>
      <trkpt lat="46.13985" lon="8.70481">
        <ele>1001.3</ele>
        <time>1970-01-01T01:00:00+01:00</time>
      </trkpt>
      <trkpt lat="46.13985" lon="8.70481">
        <ele>1001.3</ele>
      </trkpt>
      <trkpt lat="46.13987" lon="8.70479">
        <ele>1001.9</ele>
        <time>1970-01-01T01:00:00+01:00</time>
      </trkpt>
      <trkpt lat="46.13991" lon="8.70476">
        <ele>1002.6</ele>
        <time>1970-01-01T01:00:00+01:00</time>
      </trkpt>
      <trkpt lat="46.13995" lon="8.70469">
        <ele>1004.5</ele>
        <time>1970-01-01T01:00:00+01:00</time>
      </trkpt>
      <trkpt lat="46.13998" lon="8.70464">
        <ele>1005.5</ele>
        <time>1970-01-01T01:00:00+01:00</time>
      </trkpt>
      <trkpt lat="46.14004" lon="8.70455">
        <ele>1007.4</ele>
        <time>1970-01-01T01:00:00+01:00</time>
      </trkpt>
      <trkpt lat="46.14011" lon="8.70449">
        <ele>1010.4</ele>
        <time>1970-01-01T01:00:00+01:00</time>
      </trkpt>
      <trkpt lat="46.14021" lon="8.70445">
        <ele>1014.8</ele>
        <time>1970-01-01T01:00:00+01:00</time>
      </trkpt>
      <trkpt lat="46.14031" lon="8.70445">
        <ele>1017.1</ele>
        <time>1970-01-01T01:00:00+01:00</time>
      </trkpt>
      <trkpt lat="46.14035" lon="8.70445">
        <ele>1017.9</ele>
        <time>1970-01-01T01:00:00+01:00</time>
      </trkpt>
      <trkpt lat="46.14035" lon="8.70442">
        <ele>1018.6</ele>
        <time>1970-01-01T01:00:00+01:00</time>
      </trkpt>
      <trkpt lat="46.14029" lon="8.70435">
        <ele>1021.4</ele>
        <time>1970-01-01T01:00:00+01:00</time>
      </trkpt>
      <trkpt lat="46.14023" lon="8.70429">
        <ele>1023.5</ele>
        <time>1970-01-01T01:00:00+01:00</time>
      </trkpt>
      <trkpt lat="46.14013" lon="8.70421">
        <ele>1026</ele>
        <time>1970-01-01T01:00:00+01:00</time>
      </trkpt>
      <trkpt lat="46.14006" lon="8.70414">
        <ele>1029.8</ele>
        <time>1970-01-01T01:00:00+01:00</time>
      </trkpt>
      <trkpt lat="46.13996" lon="8.70409">
        <ele>1033.9</ele>
        <time>1970-01-01T01:00:00+01:00</time>
      </trkpt>
      <trkpt lat="46.13982" lon="8.70397">
        <ele>1040.7</ele>
        <time>1970-01-01T01:00:00+01:00</time>
      </trkpt>
      <trkpt lat="46.13978" lon="8.70391">
        <ele>1043.4</ele>
        <time>1970-01-01T01:00:00+01:00</time>
      </trkpt>
      <trkpt lat="46.13972" lon="8.70342">
        <ele>1061.6</ele>
        <time>1970-01-01T01:00:00+01:00</time>
      </trkpt>
      <trkpt lat="46.13971" lon="8.7033">
        <ele>1066.4</ele>
        <time>1970-01-01T01:00:00+01:00</time>
      </trkpt>
      <trkpt lat="46.13972" lon="8.70319">
        <ele>1070.5</ele>
        <time>1970-01-01T01:00:00+01:00</time>
      </trkpt>
      <trkpt lat="46.13972" lon="8.70307">
        <ele>1075.6</ele>
        <time>1970-01-01T01:00:00+01:00</time>
      </trkpt>
      <trkpt lat="46.13972" lon="8.70296">
        <ele>1079</ele>
        <time>1970-01-01T01:00:00+01:00</time>
      </trkpt>
      <trkpt lat="46.13972" lon="8.70281">
        <ele>1083.5</ele>
        <time>1970-01-01T01:00:00+01:00</time>
      </trkpt>
      <trkpt lat="46.13971" lon="8.70274">
        <ele>1085.6</ele>
        <time>1970-01-01T01:00:00+01:00</time>
      </trkpt>
      <trkpt lat="46.13971" lon="8.70266">
        <ele>1088</ele>
        <time>1970-01-01T01:00:00+01:00</time>
      </trkpt>
      <trkpt lat="46.1397" lon="8.70259">
        <ele>1089.8</ele>
        <time>1970-01-01T01:00:00+01:00</time>
      </trkpt>
      <trkpt lat="46.13967" lon="8.70249">
        <ele>1092.1</ele>
        <time>1970-01-01T01:00:00+01:00</time>
      </trkpt>
      <trkpt lat="46.13965" lon="8.70239">
        <ele>1094.4</ele>
        <time>1970-01-01T01:00:00+01:00</time>
      </trkpt>
      <trkpt lat="46.13963" lon="8.70229">
        <ele>1096.1</ele>
        <time>1970-01-01T01:00:00+01:00</time>
      </trkpt>
      <trkpt lat="46.13961" lon="8.7022">
        <ele>1097.4</ele>
        <time>1970-01-01T01:00:00+01:00</time>
      </trkpt>
      <trkpt lat="46.13961" lon="8.70212">
        <ele>1099</ele>
        <time>1970-01-01T01:00:00+01:00</time>
      </trkpt>
      <trkpt lat="46.13961" lon="8.70208">
        <ele>1100.3</ele>
        <time>1970-01-01T01:00:00+01:00</time>
      </trkpt>
      <trkpt lat="46.13965" lon="8.70209">
        <ele>1101.9</ele>
        <time>1970-01-01T01:00:00+01:00</time>
      </trkpt>
      <trkpt lat="46.1397" lon="8.70213">
        <ele>1102.9</ele>
        <time>1970-01-01T01:00:00+01:00</time>
      </trkpt>
      <trkpt lat="46.13973" lon="8.70214">
        <ele>1104.1</ele>
        <time>1970-01-01T01:00:00+01:00</time>
      </trkpt>
      <trkpt lat="46.13974" lon="8.70212">
        <ele>1104.8</ele>
        <time>1970-01-01T01:00:00+01:00</time>
      </trkpt>
      <trkpt lat="46.13974" lon="8.70209">
        <ele>1105.6</ele>
        <time>1970-01-01T01:00:00+01:00</time>
      </trkpt>
      <trkpt lat="46.13975" lon="8.70206">
        <ele>1106.7</ele>
        <time>1970-01-01T01:00:00+01:00</time>
      </trkpt>
      <trkpt lat="46.13979" lon="8.70206">
        <ele>1108.4</ele>
        <time>1970-01-01T01:00:00+01:00</time>
      </trkpt>
      <trkpt lat="46.13982" lon="8.70205">
        <ele>1110.1</ele>
        <time>1970-01-01T01:00:00+01:00</time>
      </trkpt>
      <trkpt lat="46.13984" lon="8.70204">
        <ele>1111.7</ele>
        <time>1970-01-01T01:00:00+01:00</time>
      </trkpt>
      <trkpt lat="46.13988" lon="8.70207">
        <ele>1112.8</ele>
        <time>1970-01-01T01:00:00+01:00</time>
      </trkpt>
      <trkpt lat="46.13995" lon="8.70216">
        <ele>1114.3</ele>
        <time>1970-01-01T01:00:00+01:00</time>
      </trkpt>
      <trkpt lat="46.13996" lon="8.70217">
        <ele>1114.7</ele>
        <time>1970-01-01T01:00:00+01:00</time>
      </trkpt>
      <trkpt lat="46.13997" lon="8.70217">
        <ele>1115.2</ele>
        <time>1970-01-01T01:00:00+01:00</time>
      </trkpt>
      <trkpt lat="46.13997" lon="8.70214">
        <ele>1115.9</ele>
        <time>1970-01-01T01:00:00+01:00</time>
      </trkpt>
      <trkpt lat="46.13997" lon="8.70212">
        <ele>1116.6</ele>
        <time>1970-01-01T01:00:00+01:00</time>
      </trkpt>
      <trkpt lat="46.13998" lon="8.70211">
        <ele>1117.3</ele>
        <time>1970-01-01T01:00:00+01:00</time>
      </trkpt>
      <trkpt lat="46.13999" lon="8.70212">
        <ele>1117.6</ele>
        <time>1970-01-01T01:00:00+01:00</time>
      </trkpt>
      <trkpt lat="46.14005" lon="8.70221">
        <ele>1119.4</ele>
        <time>1970-01-01T01:00:00+01:00</time>
      </trkpt>
      <trkpt lat="46.14008" lon="8.70228">
        <ele>1119.8</ele>
        <time>1970-01-01T01:00:00+01:00</time>
      </trkpt>
      <trkpt lat="46.14013" lon="8.70236">
        <ele>1121.1</ele>
        <time>1970-01-01T01:00:00+01:00</time>
      </trkpt>
      <trkpt lat="46.14016" lon="8.70238">
        <ele>1121.8</ele>
        <time>1970-01-01T01:00:00+01:00</time>
      </trkpt>
      <trkpt lat="46.14019" lon="8.70238">
        <ele>1122.3</ele>
        <time>1970-01-01T01:00:00+01:00</time>
      </trkpt>
      <trkpt lat="46.14021" lon="8.70237">
        <ele>1123.4</ele>
        <time>1970-01-01T01:00:00+01:00</time>
      </trkpt>
      <trkpt lat="46.14022" lon="8.70235">
        <ele>1124.5</ele>
        <time>1970-01-01T01:00:00+01:00</time>
      </trkpt>
      <trkpt lat="46.14026" lon="8.70235">
        <ele>1125.7</ele>
        <time>1970-01-01T01:00:00+01:00</time>
      </trkpt>
      <trkpt lat="46.1403" lon="8.70236">
        <ele>1126.5</ele>
        <time>1970-01-01T01:00:00+01:00</time>
      </trkpt>
      <trkpt lat="46.14036" lon="8.70237">
        <ele>1128</ele>
        <time>1970-01-01T01:00:00+01:00</time>
      </trkpt>
      <trkpt lat="46.14041" lon="8.70237">
        <ele>1129.9</ele>
        <time>1970-01-01T01:00:00+01:00</time>
      </trkpt>
      <trkpt lat="46.14047" lon="8.70237">
        <ele>1131.4</ele>
        <time>1970-01-01T01:00:00+01:00</time>
      </trkpt>
      <trkpt lat="46.1405" lon="8.70236">
        <ele>1132.8</ele>
        <time>1970-01-01T01:00:00+01:00</time>
      </trkpt>
      <trkpt lat="46.1405" lon="8.70234">
        <ele>1133.6</ele>
        <time>1970-01-01T01:00:00+01:00</time>
      </trkpt>
      <trkpt lat="46.14049" lon="8.70229">
        <ele>1135.5</ele>
        <time>1970-01-01T01:00:00+01:00</time>
      </trkpt>
      <trkpt lat="46.14048" lon="8.70219">
        <ele>1138.5</ele>
        <time>1970-01-01T01:00:00+01:00</time>
      </trkpt>
      <trkpt lat="46.14047" lon="8.70213">
        <ele>1140.9</ele>
        <time>1970-01-01T01:00:00+01:00</time>
      </trkpt>
      <trkpt lat="46.14047" lon="8.70207">
        <ele>1143.1</ele>
        <time>1970-01-01T01:00:00+01:00</time>
      </trkpt>
      <trkpt lat="46.14045" lon="8.70204">
        <ele>1144.1</ele>
        <time>1970-01-01T01:00:00+01:00</time>
      </trkpt>
      <trkpt lat="46.14043" lon="8.70199">
        <ele>1145.7</ele>
        <time>1970-01-01T01:00:00+01:00</time>
      </trkpt>
      <trkpt lat="46.14041" lon="8.70193">
        <ele>1148</ele>
        <time>1970-01-01T01:00:00+01:00</time>
      </trkpt>
      <trkpt lat="46.14038" lon="8.70188">
        <ele>1149.5</ele>
        <time>1970-01-01T01:00:00+01:00</time>
      </trkpt>
      <trkpt lat="46.14036" lon="8.70179">
        <ele>1152.3</ele>
        <time>1970-01-01T01:00:00+01:00</time>
      </trkpt>
      <trkpt lat="46.14035" lon="8.70169">
        <ele>1155.4</ele>
        <time>1970-01-01T01:00:00+01:00</time>
      </trkpt>
      <trkpt lat="46.14031" lon="8.70161">
        <ele>1156.1</ele>
        <time>1970-01-01T01:00:00+01:00</time>
      </trkpt>
      <trkpt lat="46.14028" lon="8.70152">
        <ele>1157.7</ele>
        <time>1970-01-01T01:00:00+01:00</time>
      </trkpt>
      <trkpt lat="46.14028" lon="8.70144">
        <ele>1159.6</ele>
        <time>1970-01-01T01:00:00+01:00</time>
      </trkpt>
      <trkpt lat="46.14029" lon="8.70136">
        <ele>1162.1</ele>
        <time>1970-01-01T01:00:00+01:00</time>
      </trkpt>
      <trkpt lat="46.14027" lon="8.70128">
        <ele>1163.6</ele>
        <time>1970-01-01T01:00:00+01:00</time>
      </trkpt>
      <trkpt lat="46.14025" lon="8.70117">
        <ele>1166.1</ele>
        <time>1970-01-01T01:00:00+01:00</time>
      </trkpt>
      <trkpt lat="46.14026" lon="8.70115">
        <ele>1167.1</ele>
        <time>1970-01-01T01:00:00+01:00</time>
      </trkpt>
      <trkpt lat="46.14034" lon="8.70121">
        <ele>1169.4</ele>
        <time>1970-01-01T01:00:00+01:00</time>
      </trkpt>
      <trkpt lat="46.1404" lon="8.70124">
        <ele>1171.1</ele>
        <time>1970-01-01T01:00:00+01:00</time>
      </trkpt>
      <trkpt lat="46.1405" lon="8.70131">
        <ele>1173.6</ele>
        <time>1970-01-01T01:00:00+01:00</time>
      </trkpt>
      <trkpt lat="46.14059" lon="8.70135">
        <ele>1175.9</ele>
        <time>1970-01-01T01:00:00+01:00</time>
      </trkpt>
      <trkpt lat="46.14064" lon="8.70136">
        <ele>1177.7</ele>
        <time>1970-01-01T01:00:00+01:00</time>
      </trkpt>
      <trkpt lat="46.14069" lon="8.70133">
        <ele>1180.2</ele>
        <time>1970-01-01T01:00:00+01:00</time>
      </trkpt>
      <trkpt lat="46.14074" lon="8.70131">
        <ele>1182.1</ele>
        <time>1970-01-01T01:00:00+01:00</time>
      </trkpt>
      <trkpt lat="46.14076" lon="8.70127">
        <ele>1183.7</ele>
        <time>1970-01-01T01:00:00+01:00</time>
      </trkpt>
      <trkpt lat="46.14076" lon="8.70123">
        <ele>1185.2</ele>
        <time>1970-01-01T01:00:00+01:00</time>
      </trkpt>
      <trkpt lat="46.14071" lon="8.70115">
        <ele>1187.2</ele>
        <time>1970-01-01T01:00:00+01:00</time>
      </trkpt>
      <trkpt lat="46.14065" lon="8.70106">
        <ele>1188.6</ele>
        <time>1970-01-01T01:00:00+01:00</time>
      </trkpt>
      <trkpt lat="46.14063" lon="8.70099">
        <ele>1190</ele>
        <time>1970-01-01T01:00:00+01:00</time>
      </trkpt>
      <trkpt lat="46.14063" lon="8.70092">
        <ele>1192.2</ele>
        <time>1970-01-01T01:00:00+01:00</time>
      </trkpt>
      <trkpt lat="46.14064" lon="8.70086">
        <ele>1194.3</ele>
        <time>1970-01-01T01:00:00+01:00</time>
      </trkpt>
      <trkpt lat="46.14068" lon="8.70087">
        <ele>1195.6</ele>
        <time>1970-01-01T01:00:00+01:00</time>
      </trkpt>
      <trkpt lat="46.14068" lon="8.70081">
        <ele>1197.1</ele>
        <time>1970-01-01T01:00:00+01:00</time>
      </trkpt>
      <trkpt lat="46.14067" lon="8.70072">
        <ele>1198.8</ele>
        <time>1970-01-01T01:00:00+01:00</time>
      </trkpt>
      <trkpt lat="46.14067" lon="8.70063">
        <ele>1200.3</ele>
        <time>1970-01-01T01:00:00+01:00</time>
      </trkpt>
      <trkpt lat="46.14068" lon="8.70053">
        <ele>1202.6</ele>
        <time>1970-01-01T01:00:00+01:00</time>
      </trkpt>
      <trkpt lat="46.1407" lon="8.70048">
        <ele>1204.9</ele>
        <time>1970-01-01T01:00:00+01:00</time>
      </trkpt>
      <trkpt lat="46.14075" lon="8.70048">
        <ele>1207.4</ele>
        <time>1970-01-01T01:00:00+01:00</time>
      </trkpt>
      <trkpt lat="46.14084" lon="8.70052">
        <ele>1212.6</ele>
        <time>1970-01-01T01:00:00+01:00</time>
      </trkpt>
      <trkpt lat="46.14091" lon="8.70057">
        <ele>1215.9</ele>
        <time>1970-01-01T01:00:00+01:00</time>
      </trkpt>
      <trkpt lat="46.14101" lon="8.7006">
        <ele>1219.3</ele>
        <time>1970-01-01T01:00:00+01:00</time>
      </trkpt>
      <trkpt lat="46.14102" lon="8.70051">
        <ele>1221</ele>
        <time>1970-01-01T01:00:00+01:00</time>
      </trkpt>
      <trkpt lat="46.14103" lon="8.70047">
        <ele>1221.6</ele>
        <time>1970-01-01T01:00:00+01:00</time>
      </trkpt>
      <trkpt lat="46.14108" lon="8.70045">
        <ele>1222.9</ele>
        <time>1970-01-01T01:00:00+01:00</time>
      </trkpt>
      <trkpt lat="46.14111" lon="8.70044">
        <ele>1224</ele>
        <time>1970-01-01T01:00:00+01:00</time>
      </trkpt>
      <trkpt lat="46.14113" lon="8.70042">
        <ele>1224.9</ele>
        <time>1970-01-01T01:00:00+01:00</time>
      </trkpt>
      <trkpt lat="46.14113" lon="8.70036">
        <ele>1226.2</ele>
        <time>1970-01-01T01:00:00+01:00</time>
      </trkpt>
      <trkpt lat="46.14112" lon="8.70028">
        <ele>1228.5</ele>
        <time>1970-01-01T01:00:00+01:00</time>
      </trkpt>
      <trkpt lat="46.14116" lon="8.70029">
        <ele>1230.3</ele>
        <time>1970-01-01T01:00:00+01:00</time>
      </trkpt>
      <trkpt lat="46.14119" lon="8.70029">
        <ele>1231.6</ele>
        <time>1970-01-01T01:00:00+01:00</time>
      </trkpt>
      <trkpt lat="46.14122" lon="8.70028">
        <ele>1233</ele>
        <time>1970-01-01T01:00:00+01:00</time>
      </trkpt>
      <trkpt lat="46.14128" lon="8.70027">
        <ele>1236.7</ele>
        <time>1970-01-01T01:00:00+01:00</time>
      </trkpt>
      <trkpt lat="46.14133" lon="8.70025">
        <ele>1238.9</ele>
        <time>1970-01-01T01:00:00+01:00</time>
      </trkpt>
      <trkpt lat="46.14137" lon="8.70024">
        <ele>1240.3</ele>
        <time>1970-01-01T01:00:00+01:00</time>
      </trkpt>
      <trkpt lat="46.14136" lon="8.70018">
        <ele>1241.3</ele>
        <time>1970-01-01T01:00:00+01:00</time>
      </trkpt>
      <trkpt lat="46.14134" lon="8.70013">
        <ele>1242.2</ele>
        <time>1970-01-01T01:00:00+01:00</time>
      </trkpt>
      <trkpt lat="46.14133" lon="8.70009">
        <ele>1243.2</ele>
        <time>1970-01-01T01:00:00+01:00</time>
      </trkpt>
      <trkpt lat="46.1413" lon="8.70003">
        <ele>1244.6</ele>
        <time>1970-01-01T01:00:00+01:00</time>
      </trkpt>
      <trkpt lat="46.14128" lon="8.69998">
        <ele>1245.7</ele>
        <time>1970-01-01T01:00:00+01:00</time>
      </trkpt>
      <trkpt lat="46.14125" lon="8.69992">
        <ele>1246.5</ele>
        <time>1970-01-01T01:00:00+01:00</time>
      </trkpt>
      <trkpt lat="46.14123" lon="8.69988">
        <ele>1247.5</ele>
        <time>1970-01-01T01:00:00+01:00</time>
      </trkpt>
      <trkpt lat="46.14126" lon="8.69986">
        <ele>1248.9</ele>
        <time>1970-01-01T01:00:00+01:00</time>
      </trkpt>
      <trkpt lat="46.14128" lon="8.69985">
        <ele>1249.9</ele>
        <time>1970-01-01T01:00:00+01:00</time>
      </trkpt>
      <trkpt lat="46.14129" lon="8.69982">
        <ele>1251.2</ele>
        <time>1970-01-01T01:00:00+01:00</time>
      </trkpt>
      <trkpt lat="46.14129" lon="8.69978">
        <ele>1252.8</ele>
        <time>1970-01-01T01:00:00+01:00</time>
      </trkpt>
      <trkpt lat="46.1413" lon="8.69973">
        <ele>1254.6</ele>
        <time>1970-01-01T01:00:00+01:00</time>
      </trkpt>
      <trkpt lat="46.14132" lon="8.6997">
        <ele>1256.1</ele>
        <time>1970-01-01T01:00:00+01:00</time>
      </trkpt>
      <trkpt lat="46.14134" lon="8.69969">
        <ele>1257.8</ele>
        <time>1970-01-01T01:00:00+01:00</time>
      </trkpt>
      <trkpt lat="46.14137" lon="8.69968">
        <ele>1260</ele>
        <time>1970-01-01T01:00:00+01:00</time>
      </trkpt>
      <trkpt lat="46.14142" lon="8.69969">
        <ele>1262.8</ele>
        <time>1970-01-01T01:00:00+01:00</time>
      </trkpt>
      <trkpt lat="46.14147" lon="8.69969">
        <ele>1264.9</ele>
        <time>1970-01-01T01:00:00+01:00</time>
      </trkpt>
      <trkpt lat="46.1415" lon="8.69968">
        <ele>1267.2</ele>
        <time>1970-01-01T01:00:00+01:00</time>
      </trkpt>
      <trkpt lat="46.14151" lon="8.69966">
        <ele>1267.8</ele>
        <time>1970-01-01T01:00:00+01:00</time>
      </trkpt>
      <trkpt lat="46.1415" lon="8.69963">
        <ele>1268.4</ele>
        <time>1970-01-01T01:00:00+01:00</time>
      </trkpt>
      <trkpt lat="46.14148" lon="8.69959">
        <ele>1269.5</ele>
        <time>1970-01-01T01:00:00+01:00</time>
      </trkpt>
      <trkpt lat="46.14146" lon="8.69953">
        <ele>1270.5</ele>
        <time>1970-01-01T01:00:00+01:00</time>
      </trkpt>
      <trkpt lat="46.14144" lon="8.69946">
        <ele>1271.6</ele>
        <time>1970-01-01T01:00:00+01:00</time>
      </trkpt>
      <trkpt lat="46.14143" lon="8.69939">
        <ele>1272.1</ele>
        <time>1970-01-01T01:00:00+01:00</time>
      </trkpt>
      <trkpt lat="46.14143" lon="8.69932">
        <ele>1273.2</ele>
        <time>1970-01-01T01:00:00+01:00</time>
      </trkpt>
      <trkpt lat="46.14144" lon="8.69924">
        <ele>1274.2</ele>
        <time>1970-01-01T01:00:00+01:00</time>
      </trkpt>
      <trkpt lat="46.14144" lon="8.69918">
        <ele>1275.1</ele>
        <time>1970-01-01T01:00:00+01:00</time>
      </trkpt>
      <trkpt lat="46.14144" lon="8.6991">
        <ele>1276.1</ele>
        <time>1970-01-01T01:00:00+01:00</time>
      </trkpt>
      <trkpt lat="46.14144" lon="8.69901">
        <ele>1277.4</ele>
        <time>1970-01-01T01:00:00+01:00</time>
      </trkpt>
      <trkpt lat="46.14145" lon="8.69892">
        <ele>1278.5</ele>
        <time>1970-01-01T01:00:00+01:00</time>
      </trkpt>
      <trkpt lat="46.14146" lon="8.69883">
        <ele>1279.6</ele>
        <time>1970-01-01T01:00:00+01:00</time>
      </trkpt>
      <trkpt lat="46.14147" lon="8.69875">
        <ele>1280.3</ele>
        <time>1970-01-01T01:00:00+01:00</time>
      </trkpt>
      <trkpt lat="46.14148" lon="8.69867">
        <ele>1281.2</ele>
        <time>1970-01-01T01:00:00+01:00</time>
      </trkpt>
      <trkpt lat="46.14148" lon="8.69858">
        <ele>1282.1</ele>
        <time>1970-01-01T01:00:00+01:00</time>
      </trkpt>
      <trkpt lat="46.14145" lon="8.69852">
        <ele>1283.2</ele>
        <time>1970-01-01T01:00:00+01:00</time>
      </trkpt>
      <trkpt lat="46.14143" lon="8.6985">
        <ele>1283.5</ele>
        <time>1970-01-01T01:00:00+01:00</time>
      </trkpt>
      <trkpt lat="46.14141" lon="8.69849">
        <ele>1283.6</ele>
        <time>1970-01-01T01:00:00+01:00</time>
      </trkpt>
      <trkpt lat="46.14134" lon="8.69844">
        <ele>1283.7</ele>
        <time>1970-01-01T01:00:00+01:00</time>
      </trkpt>
      <trkpt lat="46.14129" lon="8.69839">
        <ele>1283.4</ele>
        <time>1970-01-01T01:00:00+01:00</time>
      </trkpt>
      <trkpt lat="46.14128" lon="8.69834">
        <ele>1283.4</ele>
        <time>1970-01-01T01:00:00+01:00</time>
      </trkpt>
      <trkpt lat="46.14128" lon="8.69829">
        <ele>1284.6</ele>
        <time>1970-01-01T01:00:00+01:00</time>
      </trkpt>
      <trkpt lat="46.14129" lon="8.69824">
        <ele>1285.2</ele>
        <time>1970-01-01T01:00:00+01:00</time>
      </trkpt>
      <trkpt lat="46.14128" lon="8.69821">
        <ele>1285.4</ele>
        <time>1970-01-01T01:00:00+01:00</time>
      </trkpt>
      <trkpt lat="46.14127" lon="8.69816">
        <ele>1285.9</ele>
        <time>1970-01-01T01:00:00+01:00</time>
      </trkpt>
      <trkpt lat="46.14126" lon="8.69814">
        <ele>1286.1</ele>
        <time>1970-01-01T01:00:00+01:00</time>
      </trkpt>
      <trkpt lat="46.14124" lon="8.6981">
        <ele>1285.9</ele>
        <time>1970-01-01T01:00:00+01:00</time>
      </trkpt>
      <trkpt lat="46.14123" lon="8.69805">
        <ele>1286</ele>
        <time>1970-01-01T01:00:00+01:00</time>
      </trkpt>
      <trkpt lat="46.14123" lon="8.69801">
        <ele>1286.2</ele>
        <time>1970-01-01T01:00:00+01:00</time>
      </trkpt>
      <trkpt lat="46.14122" lon="8.69797">
        <ele>1287.1</ele>
        <time>1970-01-01T01:00:00+01:00</time>
      </trkpt>
      <trkpt lat="46.14121" lon="8.69793">
        <ele>1287.4</ele>
        <time>1970-01-01T01:00:00+01:00</time>
      </trkpt>
      <trkpt lat="46.1412" lon="8.69789">
        <ele>1287.7</ele>
        <time>1970-01-01T01:00:00+01:00</time>
      </trkpt>
      <trkpt lat="46.14117" lon="8.69781">
        <ele>1288.3</ele>
        <time>1970-01-01T01:00:00+01:00</time>
      </trkpt>
      <trkpt lat="46.14116" lon="8.69776">
        <ele>1288.7</ele>
        <time>1970-01-01T01:00:00+01:00</time>
      </trkpt>
      <trkpt lat="46.14113" lon="8.69772">
        <ele>1289.4</ele>
        <time>1970-01-01T01:00:00+01:00</time>
      </trkpt>
      <trkpt lat="46.14112" lon="8.69768">
        <ele>1289.7</ele>
        <time>1970-01-01T01:00:00+01:00</time>
      </trkpt>
      <trkpt lat="46.14111" lon="8.69765">
        <ele>1289.9</ele>
        <time>1970-01-01T01:00:00+01:00</time>
      </trkpt>
      <trkpt lat="46.1411" lon="8.6976">
        <ele>1290</ele>
        <time>1970-01-01T01:00:00+01:00</time>
      </trkpt>
      <trkpt lat="46.1411" lon="8.69753">
        <ele>1290.1</ele>
        <time>1970-01-01T01:00:00+01:00</time>
      </trkpt>
      <trkpt lat="46.1411" lon="8.69748">
        <ele>1290.2</ele>
        <time>1970-01-01T01:00:00+01:00</time>
      </trkpt>
      <trkpt lat="46.14109" lon="8.69743">
        <ele>1290.3</ele>
        <time>1970-01-01T01:00:00+01:00</time>
      </trkpt>
      <trkpt lat="46.14108" lon="8.69737">
        <ele>1290.1</ele>
        <time>1970-01-01T01:00:00+01:00</time>
      </trkpt>
      <trkpt lat="46.14107" lon="8.6973">
        <ele>1289.6</ele>
        <time>1970-01-01T01:00:00+01:00</time>
      </trkpt>
      <trkpt lat="46.14106" lon="8.69726">
        <ele>1289.5</ele>
        <time>1970-01-01T01:00:00+01:00</time>
      </trkpt>
      <trkpt lat="46.14104" lon="8.69721">
        <ele>1289.3</ele>
        <time>1970-01-01T01:00:00+01:00</time>
      </trkpt>
      <trkpt lat="46.14102" lon="8.69711">
        <ele>1290</ele>
        <time>1970-01-01T01:00:00+01:00</time>
      </trkpt>
      <trkpt lat="46.141" lon="8.69705">
        <ele>1290.4</ele>
        <time>1970-01-01T01:00:00+01:00</time>
      </trkpt>
      <trkpt lat="46.14099" lon="8.697">
        <ele>1290.8</ele>
        <time>1970-01-01T01:00:00+01:00</time>
      </trkpt>
      <trkpt lat="46.14098" lon="8.69695">
        <ele>1291.2</ele>
        <time>1970-01-01T01:00:00+01:00</time>
      </trkpt>
      <trkpt lat="46.14099" lon="8.69692">
        <ele>1291.9</ele>
        <time>1970-01-01T01:00:00+01:00</time>
      </trkpt>
      <trkpt lat="46.14098" lon="8.69688">
        <ele>1292.3</ele>
        <time>1970-01-01T01:00:00+01:00</time>
      </trkpt>
      <trkpt lat="46.14097" lon="8.69681">
        <ele>1292.4</ele>
        <time>1970-01-01T01:00:00+01:00</time>
      </trkpt>
      <trkpt lat="46.14097" lon="8.69677">
        <ele>1292.8</ele>
        <time>1970-01-01T01:00:00+01:00</time>
      </trkpt>
      <trkpt lat="46.14097" lon="8.69673">
        <ele>1293.3</ele>
        <time>1970-01-01T01:00:00+01:00</time>
      </trkpt>
      <trkpt lat="46.14096" lon="8.69668">
        <ele>1293.7</ele>
        <time>1970-01-01T01:00:00+01:00</time>
      </trkpt>
      <trkpt lat="46.14095" lon="8.69663">
        <ele>1294.1</ele>
        <time>1970-01-01T01:00:00+01:00</time>
      </trkpt>
      <trkpt lat="46.14094" lon="8.69659">
        <ele>1294.8</ele>
        <time>1970-01-01T01:00:00+01:00</time>
      </trkpt>
      <trkpt lat="46.14094" lon="8.69656">
        <ele>1295.9</ele>
        <time>1970-01-01T01:00:00+01:00</time>
      </trkpt>
      <trkpt lat="46.14094" lon="8.69653">
        <ele>1297</ele>
        <time>1970-01-01T01:00:00+01:00</time>
      </trkpt>
      <trkpt lat="46.14093" lon="8.69648">
        <ele>1298</ele>
        <time>1970-01-01T01:00:00+01:00</time>
      </trkpt>
      <trkpt lat="46.14091" lon="8.69643">
        <ele>1299.1</ele>
        <time>1970-01-01T01:00:00+01:00</time>
      </trkpt>
      <trkpt lat="46.1409" lon="8.69637">
        <ele>1299.8</ele>
        <time>1970-01-01T01:00:00+01:00</time>
      </trkpt>
      <trkpt lat="46.14089" lon="8.69631">
        <ele>1300.6</ele>
        <time>1970-01-01T01:00:00+01:00</time>
      </trkpt>
      <trkpt lat="46.14087" lon="8.69627">
        <ele>1300.6</ele>
        <time>1970-01-01T01:00:00+01:00</time>
      </trkpt>
      <trkpt lat="46.14087" lon="8.69623">
        <ele>1300.9</ele>
        <time>1970-01-01T01:00:00+01:00</time>
      </trkpt>
      <trkpt lat="46.14087" lon="8.69618">
        <ele>1301.7</ele>
        <time>1970-01-01T01:00:00+01:00</time>
      </trkpt>
      <trkpt lat="46.14088" lon="8.69615">
        <ele>1302.5</ele>
        <time>1970-01-01T01:00:00+01:00</time>
      </trkpt>
      <trkpt lat="46.14086" lon="8.69613">
        <ele>1302.7</ele>
        <time>1970-01-01T01:00:00+01:00</time>
      </trkpt>
      <trkpt lat="46.14085" lon="8.69611">
        <ele>1302.2</ele>
        <time>1970-01-01T01:00:00+01:00</time>
      </trkpt>
      <trkpt lat="46.14083" lon="8.6961">
        <ele>1301.9</ele>
        <time>1970-01-01T01:00:00+01:00</time>
      </trkpt>
      <trkpt lat="46.14082" lon="8.69607">
        <ele>1301.6</ele>
        <time>1970-01-01T01:00:00+01:00</time>
      </trkpt>
      <trkpt lat="46.1408" lon="8.69603">
        <ele>1301.8</ele>
        <time>1970-01-01T01:00:00+01:00</time>
      </trkpt>
      <trkpt lat="46.14078" lon="8.69598">
        <ele>1301.8</ele>
        <time>1970-01-01T01:00:00+01:00</time>
      </trkpt>
      <trkpt lat="46.14076" lon="8.69592">
        <ele>1302.3</ele>
        <time>1970-01-01T01:00:00+01:00</time>
      </trkpt>
      <trkpt lat="46.14074" lon="8.69588">
        <ele>1302.6</ele>
        <time>1970-01-01T01:00:00+01:00</time>
      </trkpt>
      <trkpt lat="46.14071" lon="8.69583">
        <ele>1303</ele>
        <time>1970-01-01T01:00:00+01:00</time>
      </trkpt>
      <trkpt lat="46.14071" lon="8.69579">
        <ele>1304.2</ele>
        <time>1970-01-01T01:00:00+01:00</time>
      </trkpt>
      <trkpt lat="46.14069" lon="8.69572">
        <ele>1305.8</ele>
        <time>1970-01-01T01:00:00+01:00</time>
      </trkpt>
      <trkpt lat="46.14069" lon="8.69568">
        <ele>1306.8</ele>
        <time>1970-01-01T01:00:00+01:00</time>
      </trkpt>
      <trkpt lat="46.14068" lon="8.69564">
        <ele>1308.4</ele>
        <time>1970-01-01T01:00:00+01:00</time>
      </trkpt>
      <trkpt lat="46.14068" lon="8.69557">
        <ele>1309.9</ele>
        <time>1970-01-01T01:00:00+01:00</time>
      </trkpt>
      <trkpt lat="46.14067" lon="8.69553">
        <ele>1310.2</ele>
        <time>1970-01-01T01:00:00+01:00</time>
      </trkpt>
      <trkpt lat="46.14066" lon="8.69551">
        <ele>1310.4</ele>
        <time>1970-01-01T01:00:00+01:00</time>
      </trkpt>
      <trkpt lat="46.14062" lon="8.69549">
        <ele>1309.9</ele>
        <time>1970-01-01T01:00:00+01:00</time>
      </trkpt>
      <trkpt lat="46.14057" lon="8.69548">
        <ele>1310.1</ele>
        <time>1970-01-01T01:00:00+01:00</time>
      </trkpt>
      <trkpt lat="46.14053" lon="8.69549">
        <ele>1310.1</ele>
        <time>1970-01-01T01:00:00+01:00</time>
      </trkpt>
      <trkpt lat="46.14048" lon="8.69551">
        <ele>1310</ele>
        <time>1970-01-01T01:00:00+01:00</time>
      </trkpt>
      <trkpt lat="46.14044" lon="8.69551">
        <ele>1310</ele>
        <time>1970-01-01T01:00:00+01:00</time>
      </trkpt>
      <trkpt lat="46.1404" lon="8.69552">
        <ele>1309.8</ele>
        <time>1970-01-01T01:00:00+01:00</time>
      </trkpt>
      <trkpt lat="46.14037" lon="8.69551">
        <ele>1310</ele>
        <time>1970-01-01T01:00:00+01:00</time>
      </trkpt>
      <trkpt lat="46.14034" lon="8.69548">
        <ele>1309.8</ele>
        <time>1970-01-01T01:00:00+01:00</time>
      </trkpt>
      <trkpt lat="46.14032" lon="8.69544">
        <ele>1310.3</ele>
        <time>1970-01-01T01:00:00+01:00</time>
      </trkpt>
      <trkpt lat="46.1403" lon="8.69543">
        <ele>1310.6</ele>
        <time>1970-01-01T01:00:00+01:00</time>
      </trkpt>
      <trkpt lat="46.14027" lon="8.69544">
        <ele>1310.9</ele>
        <time>1970-01-01T01:00:00+01:00</time>
      </trkpt>
      <trkpt lat="46.14025" lon="8.69547">
        <ele>1311</ele>
        <time>1970-01-01T01:00:00+01:00</time>
      </trkpt>
      <trkpt lat="46.14022" lon="8.69548">
        <ele>1311.2</ele>
        <time>1970-01-01T01:00:00+01:00</time>
      </trkpt>
      <trkpt lat="46.14018" lon="8.69548">
        <ele>1311.2</ele>
        <time>1970-01-01T01:00:00+01:00</time>
      </trkpt>
      <trkpt lat="46.14014" lon="8.69546">
        <ele>1311.3</ele>
        <time>1970-01-01T01:00:00+01:00</time>
      </trkpt>
      <trkpt lat="46.14011" lon="8.69544">
        <ele>1311.5</ele>
        <time>1970-01-01T01:00:00+01:00</time>
      </trkpt>
      <trkpt lat="46.14011" lon="8.69543">
        <ele>1311.5</ele>
        <time>1970-01-01T01:00:00+01:00</time>
      </trkpt>
      <trkpt lat="46.14011" lon="8.69543">
        <ele>1311.5</ele>
      </trkpt>
      <trkpt lat="46.14004" lon="8.69539">
        <ele>1312</ele>
        <time>1970-01-01T01:00:00+01:00</time>
      </trkpt>
      <trkpt lat="46.14001" lon="8.69538">
        <ele>1312.3</ele>
        <time>1970-01-01T01:00:00+01:00</time>
      </trkpt>
      <trkpt lat="46.13997" lon="8.69535">
        <ele>1313.3</ele>
        <time>1970-01-01T01:00:00+01:00</time>
      </trkpt>
      <trkpt lat="46.13993" lon="8.69534">
        <ele>1313.6</ele>
        <time>1970-01-01T01:00:00+01:00</time>
      </trkpt>
      <trkpt lat="46.13988" lon="8.69532">
        <ele>1314.1</ele>
        <time>1970-01-01T01:00:00+01:00</time>
      </trkpt>
      <trkpt lat="46.13986" lon="8.69528">
        <ele>1314.3</ele>
        <time>1970-01-01T01:00:00+01:00</time>
      </trkpt>
      <trkpt lat="46.13983" lon="8.69525">
        <ele>1314.3</ele>
        <time>1970-01-01T01:00:00+01:00</time>
      </trkpt>
      <trkpt lat="46.13978" lon="8.69523">
        <ele>1314.5</ele>
        <time>1970-01-01T01:00:00+01:00</time>
      </trkpt>
      <trkpt lat="46.13972" lon="8.69521">
        <ele>1315.8</ele>
        <time>1970-01-01T01:00:00+01:00</time>
      </trkpt>
      <trkpt lat="46.13966" lon="8.69518">
        <ele>1316.6</ele>
        <time>1970-01-01T01:00:00+01:00</time>
      </trkpt>
      <trkpt lat="46.13963" lon="8.69515">
        <ele>1316.5</ele>
        <time>1970-01-01T01:00:00+01:00</time>
      </trkpt>
      <trkpt lat="46.13962" lon="8.69513">
        <ele>1316.7</ele>
        <time>1970-01-01T01:00:00+01:00</time>
      </trkpt>
      <trkpt lat="46.13959" lon="8.69509">
        <ele>1317.3</ele>
        <time>1970-01-01T01:00:00+01:00</time>
      </trkpt>
      <trkpt lat="46.13957" lon="8.69506">
        <ele>1317.6</ele>
        <time>1970-01-01T01:00:00+01:00</time>
      </trkpt>
      <trkpt lat="46.13954" lon="8.69504">
        <ele>1318.1</ele>
        <time>1970-01-01T01:00:00+01:00</time>
      </trkpt>
      <trkpt lat="46.13951" lon="8.69501">
        <ele>1318.5</ele>
        <time>1970-01-01T01:00:00+01:00</time>
      </trkpt>
      <trkpt lat="46.13948" lon="8.695">
        <ele>1319</ele>
        <time>1970-01-01T01:00:00+01:00</time>
      </trkpt>
      <trkpt lat="46.13946" lon="8.69498">
        <ele>1319.4</ele>
        <time>1970-01-01T01:00:00+01:00</time>
      </trkpt>
      <trkpt lat="46.13943" lon="8.69497">
        <ele>1320.1</ele>
        <time>1970-01-01T01:00:00+01:00</time>
      </trkpt>
      <trkpt lat="46.13942" lon="8.69495">
        <ele>1320.6</ele>
        <time>1970-01-01T01:00:00+01:00</time>
      </trkpt>
      <trkpt lat="46.13942" lon="8.69494">
        <ele>1321</ele>
        <time>1970-01-01T01:00:00+01:00</time>
      </trkpt>
      <trkpt lat="46.13942" lon="8.69492">
        <ele>1321.5</ele>
        <time>1970-01-01T01:00:00+01:00</time>
      </trkpt>
      <trkpt lat="46.13944" lon="8.69491">
        <ele>1322.3</ele>
        <time>1970-01-01T01:00:00+01:00</time>
      </trkpt>
      <trkpt lat="46.13946" lon="8.69492">
        <ele>1322.2</ele>
        <time>1970-01-01T01:00:00+01:00</time>
      </trkpt>
      <trkpt lat="46.1395" lon="8.69492">
        <ele>1322.9</ele>
        <time>1970-01-01T01:00:00+01:00</time>
      </trkpt>
      <trkpt lat="46.13952" lon="8.69493">
        <ele>1323</ele>
        <time>1970-01-01T01:00:00+01:00</time>
      </trkpt>
      <trkpt lat="46.13954" lon="8.69494">
        <ele>1323.4</ele>
        <time>1970-01-01T01:00:00+01:00</time>
      </trkpt>
      <trkpt lat="46.13957" lon="8.69495">
        <ele>1324</ele>
        <time>1970-01-01T01:00:00+01:00</time>
      </trkpt>
      <trkpt lat="46.1396" lon="8.69496">
        <ele>1324.5</ele>
        <time>1970-01-01T01:00:00+01:00</time>
      </trkpt>
      <trkpt lat="46.13961" lon="8.69497">
        <ele>1324.9</ele>
        <time>1970-01-01T01:00:00+01:00</time>
      </trkpt>
      <trkpt lat="46.13964" lon="8.69499">
        <ele>1325.4</ele>
        <time>1970-01-01T01:00:00+01:00</time>
      </trkpt>
      <trkpt lat="46.13966" lon="8.695">
        <ele>1326.1</ele>
        <time>1970-01-01T01:00:00+01:00</time>
      </trkpt>
      <trkpt lat="46.1397" lon="8.69501">
        <ele>1327</ele>
        <time>1970-01-01T01:00:00+01:00</time>
      </trkpt>
      <trkpt lat="46.13972" lon="8.69502">
        <ele>1327.3</ele>
        <time>1970-01-01T01:00:00+01:00</time>
      </trkpt>
      <trkpt lat="46.13974" lon="8.69503">
        <ele>1327.6</ele>
        <time>1970-01-01T01:00:00+01:00</time>
      </trkpt>
      <trkpt lat="46.13976" lon="8.69503">
        <ele>1328</ele>
        <time>1970-01-01T01:00:00+01:00</time>
      </trkpt>
      <trkpt lat="46.13978" lon="8.69503">
        <ele>1329</ele>
        <time>1970-01-01T01:00:00+01:00</time>
      </trkpt>
      <trkpt lat="46.1398" lon="8.69502">
        <ele>1329.6</ele>
        <time>1970-01-01T01:00:00+01:00</time>
      </trkpt>
      <trkpt lat="46.13983" lon="8.69502">
        <ele>1330.3</ele>
        <time>1970-01-01T01:00:00+01:00</time>
      </trkpt>
      <trkpt lat="46.13985" lon="8.69501">
        <ele>1331.2</ele>
        <time>1970-01-01T01:00:00+01:00</time>
      </trkpt>
      <trkpt lat="46.13988" lon="8.695">
        <ele>1331.5</ele>
        <time>1970-01-01T01:00:00+01:00</time>
      </trkpt>
      <trkpt lat="46.13991" lon="8.695">
        <ele>1332.3</ele>
        <time>1970-01-01T01:00:00+01:00</time>
      </trkpt>
      <trkpt lat="46.13993" lon="8.695">
        <ele>1332.9</ele>
        <time>1970-01-01T01:00:00+01:00</time>
      </trkpt>
      <trkpt lat="46.13995" lon="8.69499">
        <ele>1333.4</ele>
        <time>1970-01-01T01:00:00+01:00</time>
      </trkpt>
      <trkpt lat="46.13998" lon="8.69499">
        <ele>1333.7</ele>
        <time>1970-01-01T01:00:00+01:00</time>
      </trkpt>
      <trkpt lat="46.13999" lon="8.69497">
        <ele>1334.5</ele>
        <time>1970-01-01T01:00:00+01:00</time>
      </trkpt>
      <trkpt lat="46.14002" lon="8.69497">
        <ele>1334.4</ele>
        <time>1970-01-01T01:00:00+01:00</time>
      </trkpt>
      <trkpt lat="46.14005" lon="8.69497">
        <ele>1334.7</ele>
        <time>1970-01-01T01:00:00+01:00</time>
      </trkpt>
      <trkpt lat="46.14008" lon="8.69498">
        <ele>1335</ele>
        <time>1970-01-01T01:00:00+01:00</time>
      </trkpt>
      <trkpt lat="46.14011" lon="8.69498">
        <ele>1335.4</ele>
        <time>1970-01-01T01:00:00+01:00</time>
      </trkpt>
      <trkpt lat="46.14014" lon="8.69497">
        <ele>1335.9</ele>
        <time>1970-01-01T01:00:00+01:00</time>
      </trkpt>
      <trkpt lat="46.14016" lon="8.69496">
        <ele>1336.5</ele>
        <time>1970-01-01T01:00:00+01:00</time>
      </trkpt>
      <trkpt lat="46.14018" lon="8.69494">
        <ele>1337</ele>
        <time>1970-01-01T01:00:00+01:00</time>
      </trkpt>
      <trkpt lat="46.14021" lon="8.69492">
        <ele>1337.6</ele>
        <time>1970-01-01T01:00:00+01:00</time>
      </trkpt>
      <trkpt lat="46.14022" lon="8.69491">
        <ele>1337.9</ele>
        <time>1970-01-01T01:00:00+01:00</time>
      </trkpt>
      <trkpt lat="46.14025" lon="8.69489">
        <ele>1338.6</ele>
        <time>1970-01-01T01:00:00+01:00</time>
      </trkpt>
      <trkpt lat="46.14027" lon="8.69487">
        <ele>1339</ele>
        <time>1970-01-01T01:00:00+01:00</time>
      </trkpt>
      <trkpt lat="46.14028" lon="8.69486">
        <ele>1339.3</ele>
        <time>1970-01-01T01:00:00+01:00</time>
      </trkpt>
      <trkpt lat="46.14031" lon="8.69484">
        <ele>1339.9</ele>
        <time>1970-01-01T01:00:00+01:00</time>
      </trkpt>
      <trkpt lat="46.14033" lon="8.69484">
        <ele>1340.2</ele>
        <time>1970-01-01T01:00:00+01:00</time>
      </trkpt>
      <trkpt lat="46.14035" lon="8.69482">
        <ele>1340.6</ele>
        <time>1970-01-01T01:00:00+01:00</time>
      </trkpt>
      <trkpt lat="46.14037" lon="8.69481">
        <ele>1341</ele>
        <time>1970-01-01T01:00:00+01:00</time>
      </trkpt>
      <trkpt lat="46.14038" lon="8.69481">
        <ele>1341.2</ele>
        <time>1970-01-01T01:00:00+01:00</time>
      </trkpt>
      <trkpt lat="46.1404" lon="8.6948">
        <ele>1341.4</ele>
        <time>1970-01-01T01:00:00+01:00</time>
      </trkpt>
      <trkpt lat="46.14041" lon="8.69478">
        <ele>1341.8</ele>
        <time>1970-01-01T01:00:00+01:00</time>
      </trkpt>
      <trkpt lat="46.14042" lon="8.69477">
        <ele>1342.5</ele>
        <time>1970-01-01T01:00:00+01:00</time>
      </trkpt>
      <trkpt lat="46.14043" lon="8.69476">
        <ele>1343</ele>
        <time>1970-01-01T01:00:00+01:00</time>
      </trkpt>
      <trkpt lat="46.14045" lon="8.69476">
        <ele>1343</ele>
        <time>1970-01-01T01:00:00+01:00</time>
      </trkpt>
      <trkpt lat="46.14049" lon="8.69476">
        <ele>1343.4</ele>
        <time>1970-01-01T01:00:00+01:00</time>
      </trkpt>
      <trkpt lat="46.14052" lon="8.69476">
        <ele>1343.9</ele>
        <time>1970-01-01T01:00:00+01:00</time>
      </trkpt>
      <trkpt lat="46.14056" lon="8.69476">
        <ele>1344.8</ele>
        <time>1970-01-01T01:00:00+01:00</time>
      </trkpt>
      <trkpt lat="46.14059" lon="8.69477">
        <ele>1345.3</ele>
        <time>1970-01-01T01:00:00+01:00</time>
      </trkpt>
      <trkpt lat="46.14062" lon="8.69477">
        <ele>1345.9</ele>
        <time>1970-01-01T01:00:00+01:00</time>
      </trkpt>
      <trkpt lat="46.14064" lon="8.69476">
        <ele>1346.7</ele>
        <time>1970-01-01T01:00:00+01:00</time>
      </trkpt>
      <trkpt lat="46.14066" lon="8.69476">
        <ele>1347.1</ele>
        <time>1970-01-01T01:00:00+01:00</time>
      </trkpt>
      <trkpt lat="46.14068" lon="8.69476">
        <ele>1347.3</ele>
        <time>1970-01-01T01:00:00+01:00</time>
      </trkpt>
      <trkpt lat="46.14071" lon="8.69479">
        <ele>1347.3</ele>
        <time>1970-01-01T01:00:00+01:00</time>
      </trkpt>
      <trkpt lat="46.14074" lon="8.69481">
        <ele>1347.5</ele>
        <time>1970-01-01T01:00:00+01:00</time>
      </trkpt>
      <trkpt lat="46.14077" lon="8.69481">
        <ele>1347.8</ele>
        <time>1970-01-01T01:00:00+01:00</time>
      </trkpt>
      <trkpt lat="46.14081" lon="8.69482">
        <ele>1348.1</ele>
        <time>1970-01-01T01:00:00+01:00</time>
      </trkpt>
      <trkpt lat="46.14082" lon="8.69482">
        <ele>1348.5</ele>
        <time>1970-01-01T01:00:00+01:00</time>
      </trkpt>
      <trkpt lat="46.14084" lon="8.69481">
        <ele>1349.6</ele>
        <time>1970-01-01T01:00:00+01:00</time>
      </trkpt>
      <trkpt lat="46.14086" lon="8.69481">
        <ele>1350.2</ele>
        <time>1970-01-01T01:00:00+01:00</time>
      </trkpt>
      <trkpt lat="46.14089" lon="8.69484">
        <ele>1350.2</ele>
        <time>1970-01-01T01:00:00+01:00</time>
      </trkpt>
      <trkpt lat="46.14091" lon="8.69487">
        <ele>1350.1</ele>
        <time>1970-01-01T01:00:00+01:00</time>
      </trkpt>
      <trkpt lat="46.14093" lon="8.69489">
        <ele>1350.6</ele>
        <time>1970-01-01T01:00:00+01:00</time>
      </trkpt>
      <trkpt lat="46.14095" lon="8.6949">
        <ele>1350.9</ele>
        <time>1970-01-01T01:00:00+01:00</time>
      </trkpt>
      <trkpt lat="46.14097" lon="8.69491">
        <ele>1351.7</ele>
        <time>1970-01-01T01:00:00+01:00</time>
      </trkpt>
      <trkpt lat="46.14099" lon="8.69492">
        <ele>1351.9</ele>
        <time>1970-01-01T01:00:00+01:00</time>
      </trkpt>
      <trkpt lat="46.14102" lon="8.69496">
        <ele>1352.2</ele>
        <time>1970-01-01T01:00:00+01:00</time>
      </trkpt>
      <trkpt lat="46.14105" lon="8.69496">
        <ele>1352.8</ele>
        <time>1970-01-01T01:00:00+01:00</time>
      </trkpt>
      <trkpt lat="46.14108" lon="8.69499">
        <ele>1353.2</ele>
        <time>1970-01-01T01:00:00+01:00</time>
      </trkpt>
      <trkpt lat="46.14111" lon="8.695">
        <ele>1353.9</ele>
        <time>1970-01-01T01:00:00+01:00</time>
      </trkpt>
      <trkpt lat="46.14117" lon="8.69506">
        <ele>1354.9</ele>
        <time>1970-01-01T01:00:00+01:00</time>
      </trkpt>
      <trkpt lat="46.14121" lon="8.69508">
        <ele>1355.5</ele>
        <time>1970-01-01T01:00:00+01:00</time>
      </trkpt>
      <trkpt lat="46.14127" lon="8.69514">
        <ele>1356.7</ele>
        <time>1970-01-01T01:00:00+01:00</time>
      </trkpt>
      <trkpt lat="46.14133" lon="8.69521">
        <ele>1357.4</ele>
        <time>1970-01-01T01:00:00+01:00</time>
      </trkpt>
      <trkpt lat="46.14136" lon="8.69522">
        <ele>1357.9</ele>
        <time>1970-01-01T01:00:00+01:00</time>
      </trkpt>
      <trkpt lat="46.1414" lon="8.69526">
        <ele>1358.5</ele>
        <time>1970-01-01T01:00:00+01:00</time>
      </trkpt>
      <trkpt lat="46.14143" lon="8.69529">
        <ele>1359.2</ele>
        <time>1970-01-01T01:00:00+01:00</time>
      </trkpt>
      <trkpt lat="46.14146" lon="8.69534">
        <ele>1359.6</ele>
        <time>1970-01-01T01:00:00+01:00</time>
      </trkpt>
      <trkpt lat="46.14151" lon="8.6954">
        <ele>1360.5</ele>
        <time>1970-01-01T01:00:00+01:00</time>
      </trkpt>
      <trkpt lat="46.14155" lon="8.69548">
        <ele>1360.7</ele>
        <time>1970-01-01T01:00:00+01:00</time>
      </trkpt>
      <trkpt lat="46.14156" lon="8.69551">
        <ele>1360.8</ele>
        <time>1970-01-01T01:00:00+01:00</time>
      </trkpt>
      <trkpt lat="46.14157" lon="8.69553">
        <ele>1360.8</ele>
        <time>1970-01-01T01:00:00+01:00</time>
      </trkpt>
      <trkpt lat="46.14162" lon="8.69559">
        <ele>1361.5</ele>
        <time>1970-01-01T01:00:00+01:00</time>
      </trkpt>
      <trkpt lat="46.14167" lon="8.69564">
        <ele>1362</ele>
        <time>1970-01-01T01:00:00+01:00</time>
      </trkpt>
      <trkpt lat="46.14172" lon="8.69572">
        <ele>1362.1</ele>
        <time>1970-01-01T01:00:00+01:00</time>
      </trkpt>
      <trkpt lat="46.14176" lon="8.69577">
        <ele>1362.4</ele>
        <time>1970-01-01T01:00:00+01:00</time>
      </trkpt>
      <trkpt lat="46.14182" lon="8.69584">
        <ele>1363.1</ele>
        <time>1970-01-01T01:00:00+01:00</time>
      </trkpt>
      <trkpt lat="46.1419" lon="8.69592">
        <ele>1364.2</ele>
        <time>1970-01-01T01:00:00+01:00</time>
      </trkpt>
      <trkpt lat="46.14197" lon="8.69598">
        <ele>1365.1</ele>
        <time>1970-01-01T01:00:00+01:00</time>
      </trkpt>
      <trkpt lat="46.14202" lon="8.69603">
        <ele>1365.6</ele>
        <time>1970-01-01T01:00:00+01:00</time>
      </trkpt>
      <trkpt lat="46.14206" lon="8.69606">
        <ele>1366</ele>
        <time>1970-01-01T01:00:00+01:00</time>
      </trkpt>
      <trkpt lat="46.14209" lon="8.6961">
        <ele>1366.2</ele>
        <time>1970-01-01T01:00:00+01:00</time>
      </trkpt>
      <trkpt lat="46.14212" lon="8.69614">
        <ele>1366.5</ele>
        <time>1970-01-01T01:00:00+01:00</time>
      </trkpt>
      <trkpt lat="46.14219" lon="8.6962">
        <ele>1367.1</ele>
        <time>1970-01-01T01:00:00+01:00</time>
      </trkpt>
      <trkpt lat="46.14221" lon="8.69622">
        <ele>1367.3</ele>
        <time>1970-01-01T01:00:00+01:00</time>
      </trkpt>
      <trkpt lat="46.14225" lon="8.69624">
        <ele>1367.7</ele>
        <time>1970-01-01T01:00:00+01:00</time>
      </trkpt>
      <trkpt lat="46.14227" lon="8.69626">
        <ele>1368.2</ele>
        <time>1970-01-01T01:00:00+01:00</time>
      </trkpt>
      <trkpt lat="46.14229" lon="8.69627">
        <ele>1368.5</ele>
        <time>1970-01-01T01:00:00+01:00</time>
      </trkpt>
      <trkpt lat="46.14233" lon="8.69628">
        <ele>1368.9</ele>
        <time>1970-01-01T01:00:00+01:00</time>
      </trkpt>
      <trkpt lat="46.14238" lon="8.69628">
        <ele>1369.8</ele>
        <time>1970-01-01T01:00:00+01:00</time>
      </trkpt>
      <trkpt lat="46.14242" lon="8.6963">
        <ele>1370.7</ele>
        <time>1970-01-01T01:00:00+01:00</time>
      </trkpt>
      <trkpt lat="46.14247" lon="8.69631">
        <ele>1371.6</ele>
        <time>1970-01-01T01:00:00+01:00</time>
      </trkpt>
      <trkpt lat="46.1425" lon="8.69633">
        <ele>1372.2</ele>
        <time>1970-01-01T01:00:00+01:00</time>
      </trkpt>
      <trkpt lat="46.14255" lon="8.69634">
        <ele>1373</ele>
        <time>1970-01-01T01:00:00+01:00</time>
      </trkpt>
      <trkpt lat="46.14259" lon="8.69635">
        <ele>1374.1</ele>
        <time>1970-01-01T01:00:00+01:00</time>
      </trkpt>
      <trkpt lat="46.14262" lon="8.69636">
        <ele>1374.6</ele>
        <time>1970-01-01T01:00:00+01:00</time>
      </trkpt>
      <trkpt lat="46.14266" lon="8.69637">
        <ele>1375.3</ele>
        <time>1970-01-01T01:00:00+01:00</time>
      </trkpt>
      <trkpt lat="46.14271" lon="8.69641">
        <ele>1375.9</ele>
        <time>1970-01-01T01:00:00+01:00</time>
      </trkpt>
      <trkpt lat="46.14276" lon="8.69644">
        <ele>1376.9</ele>
        <time>1970-01-01T01:00:00+01:00</time>
      </trkpt>
      <trkpt lat="46.14277" lon="8.69644">
        <ele>1377.1</ele>
        <time>1970-01-01T01:00:00+01:00</time>
      </trkpt>
      <trkpt lat="46.14279" lon="8.69643">
        <ele>1377.4</ele>
        <time>1970-01-01T01:00:00+01:00</time>
      </trkpt>
      <trkpt lat="46.1428" lon="8.69641">
        <ele>1377.6</ele>
        <time>1970-01-01T01:00:00+01:00</time>
      </trkpt>
      <trkpt lat="46.14282" lon="8.69639">
        <ele>1377.7</ele>
        <time>1970-01-01T01:00:00+01:00</time>
      </trkpt>
      <trkpt lat="46.14284" lon="8.69639">
        <ele>1377.5</ele>
        <time>1970-01-01T01:00:00+01:00</time>
      </trkpt>
      <trkpt lat="46.14286" lon="8.69636">
        <ele>1377</ele>
        <time>1970-01-01T01:00:00+01:00</time>
      </trkpt>
      <trkpt lat="46.14286" lon="8.69633">
        <ele>1376.7</ele>
        <time>1970-01-01T01:00:00+01:00</time>
      </trkpt>
      <trkpt lat="46.14287" lon="8.69632">
        <ele>1376.5</ele>
        <time>1970-01-01T01:00:00+01:00</time>
      </trkpt>
      <trkpt lat="46.14287" lon="8.69629">
        <ele>1376.4</ele>
        <time>1970-01-01T01:00:00+01:00</time>
      </trkpt>
      <trkpt lat="46.14288" lon="8.69625">
        <ele>1376.6</ele>
        <time>1970-01-01T01:00:00+01:00</time>
      </trkpt>
      <trkpt lat="46.14289" lon="8.69622">
        <ele>1376.3</ele>
        <time>1970-01-01T01:00:00+01:00</time>
      </trkpt>
      <trkpt lat="46.14291" lon="8.69614">
        <ele>1376.1</ele>
        <time>1970-01-01T01:00:00+01:00</time>
      </trkpt>
      <trkpt lat="46.14294" lon="8.69608">
        <ele>1375.5</ele>
        <time>1970-01-01T01:00:00+01:00</time>
      </trkpt>
      <trkpt lat="46.14299" lon="8.696">
        <ele>1375.3</ele>
        <time>1970-01-01T01:00:00+01:00</time>
      </trkpt>
      <trkpt lat="46.14304" lon="8.69594">
        <ele>1375</ele>
        <time>1970-01-01T01:00:00+01:00</time>
      </trkpt>
      <trkpt lat="46.14309" lon="8.69589">
        <ele>1375.1</ele>
        <time>1970-01-01T01:00:00+01:00</time>
      </trkpt>
      <trkpt lat="46.14311" lon="8.69586">
        <ele>1375.3</ele>
        <time>1970-01-01T01:00:00+01:00</time>
      </trkpt>
      <trkpt lat="46.14315" lon="8.6958">
        <ele>1376</ele>
        <time>1970-01-01T01:00:00+01:00</time>
      </trkpt>
      <trkpt lat="46.14319" lon="8.69576">
        <ele>1376.5</ele>
        <time>1970-01-01T01:00:00+01:00</time>
      </trkpt>
      <trkpt lat="46.14324" lon="8.69572">
        <ele>1376.4</ele>
        <time>1970-01-01T01:00:00+01:00</time>
      </trkpt>
      <trkpt lat="46.14328" lon="8.69568">
        <ele>1375.9</ele>
        <time>1970-01-01T01:00:00+01:00</time>
      </trkpt>
      <trkpt lat="46.1433" lon="8.69564">
        <ele>1375.3</ele>
        <time>1970-01-01T01:00:00+01:00</time>
      </trkpt>
      <trkpt lat="46.1433" lon="8.6956">
        <ele>1375.4</ele>
        <time>1970-01-01T01:00:00+01:00</time>
      </trkpt>
      <trkpt lat="46.14332" lon="8.69558">
        <ele>1375.6</ele>
        <time>1970-01-01T01:00:00+01:00</time>
      </trkpt>
      <trkpt lat="46.14335" lon="8.69558">
        <ele>1375.6</ele>
        <time>1970-01-01T01:00:00+01:00</time>
      </trkpt>
      <trkpt lat="46.14341" lon="8.69562">
        <ele>1377.3</ele>
        <time>1970-01-01T01:00:00+01:00</time>
      </trkpt>
      <trkpt lat="46.14344" lon="8.69562">
        <ele>1377.9</ele>
        <time>1970-01-01T01:00:00+01:00</time>
      </trkpt>
      <trkpt lat="46.14348" lon="8.69558">
        <ele>1379.2</ele>
        <time>1970-01-01T01:00:00+01:00</time>
      </trkpt>
      <trkpt lat="46.14352" lon="8.69554">
        <ele>1380.3</ele>
        <time>1970-01-01T01:00:00+01:00</time>
      </trkpt>
      <trkpt lat="46.14356" lon="8.69548">
        <ele>1381.5</ele>
        <time>1970-01-01T01:00:00+01:00</time>
      </trkpt>
      <trkpt lat="46.1436" lon="8.69544">
        <ele>1382.7</ele>
        <time>1970-01-01T01:00:00+01:00</time>
      </trkpt>
      <trkpt lat="46.14363" lon="8.69542">
        <ele>1383.4</ele>
        <time>1970-01-01T01:00:00+01:00</time>
      </trkpt>
      <trkpt lat="46.14366" lon="8.69539">
        <ele>1384.1</ele>
        <time>1970-01-01T01:00:00+01:00</time>
      </trkpt>
      <trkpt lat="46.14368" lon="8.69536">
        <ele>1384.7</ele>
        <time>1970-01-01T01:00:00+01:00</time>
      </trkpt>
      <trkpt lat="46.14371" lon="8.69534">
        <ele>1385.5</ele>
        <time>1970-01-01T01:00:00+01:00</time>
      </trkpt>
      <trkpt lat="46.14376" lon="8.69532">
        <ele>1386.5</ele>
        <time>1970-01-01T01:00:00+01:00</time>
      </trkpt>
      <trkpt lat="46.14379" lon="8.6953">
        <ele>1386.9</ele>
        <time>1970-01-01T01:00:00+01:00</time>
      </trkpt>
      <trkpt lat="46.14383" lon="8.69529">
        <ele>1387.7</ele>
        <time>1970-01-01T01:00:00+01:00</time>
      </trkpt>
      <trkpt lat="46.14391" lon="8.69528">
        <ele>1389.3</ele>
        <time>1970-01-01T01:00:00+01:00</time>
      </trkpt>
      <trkpt lat="46.14397" lon="8.69527">
        <ele>1390.9</ele>
        <time>1970-01-01T01:00:00+01:00</time>
      </trkpt>
      <trkpt lat="46.14403" lon="8.69526">
        <ele>1392.4</ele>
        <time>1970-01-01T01:00:00+01:00</time>
      </trkpt>
      <trkpt lat="46.14409" lon="8.69526">
        <ele>1394.1</ele>
        <time>1970-01-01T01:00:00+01:00</time>
      </trkpt>
      <trkpt lat="46.14413" lon="8.69524">
        <ele>1395.4</ele>
        <time>1970-01-01T01:00:00+01:00</time>
      </trkpt>
      <trkpt lat="46.14417" lon="8.6952">
        <ele>1397.1</ele>
        <time>1970-01-01T01:00:00+01:00</time>
      </trkpt>
      <trkpt lat="46.14422" lon="8.69515">
        <ele>1398</ele>
        <time>1970-01-01T01:00:00+01:00</time>
      </trkpt>
      <trkpt lat="46.14422" lon="8.69509">
        <ele>1398.5</ele>
        <time>1970-01-01T01:00:00+01:00</time>
      </trkpt>
      <trkpt lat="46.1442" lon="8.69505">
        <ele>1398.9</ele>
        <time>1970-01-01T01:00:00+01:00</time>
      </trkpt>
      <trkpt lat="46.14418" lon="8.695">
        <ele>1399.5</ele>
        <time>1970-01-01T01:00:00+01:00</time>
      </trkpt>
      <trkpt lat="46.14418" lon="8.695">
        <ele>1399.5</ele>
      </trkpt>
    </trkseg>
  </trk>
</gpx>